GFSFLT1_con_mlcape_003.txt.gz
CAPE
0 0 0 0 30 129 115 126 36 0 0 0 0 0 0 0 0 0 0 0 0 0 0 0 0 0 0 0 0 0 0 0
0 0 0 9 0 71 16 0 0 0 0 0 0 0 0 0 0 0 0 0 0 0 0 0 0 0 0 0 0 0 0 0
0 0 0 0 0 0 0 0 0 0 0 0 0 0 0 0 0 0 0 0 0 0 0 0 0 0 0 0 0 0 0 0
0 0 0 0 0 0 0 0 0 0 0 0 0 0 0 0 0 0 0 0 0 0 0 0 0 0 0 0 0 0 0 0
0 0 0 0 0 0 0 0 0 0 0 0 0 0 0 0 0 0 0 0 0 0 0 0 0 0 0 0 0 0 0 0
0 0 0 0 0 0 0 0 0 0 0 0 0 0 0 0 0 0 0 0 0 0 0 0 0 0 0 0 0 0 0 0
0 0 0 0 0 0 0 0 0 0 0 0 0 0 0 0 0 0 0 0 0 0 0 0 0 0 0 0 0 0 0 0
0 0 0 0 0 0 0 0 0 0 0 0 0 0 0 0 0 0 0 0 0 0 0 0 0 0 0 0 0 0 0 0
0 0 0 0 0 0 0 0 0 0 0 0 0 0 0 0 0 0 0 0 0 0 0 0 0 0 0 0 0 0 0 0
0 0 0 0 0 0 0 0 0 0 0 0 0 0 0 0 0 0 0 0 0 0 0 0 0 0 0 0 0 0 0 0
0 0 0 0 0 0 0 0 0 0 0 0 0 0 0 0 0 0 0 0 0 0 0 0 0 0 0 0 0 0 0 0
0 0 0 0 0 0 0 0 0 0 0 0 0 0 0 0 0 0 0 0 0 0 0 0 0 0 0 0 0 0 0 0
0 0 0 0 0 0 0 0 0 0 0 0 0 0 0 0 0 0 0 0 0 0 0 0 0 0 0 0 0 0 0 0
0 0 0 0 0 0 0 0 0 0 0 0 0 0 0 0 0 0 0 0 0 0 0 0 0 0 0 0 0 0 0 0
0 0 0 0 0 0 0 0 0 0 0 0 0 0 0 0 0 0 0 0 0 0 0 0 0 0 0 0 0 0 0 0
0 0 0 0 0 0 0 0 0 0 0 0 0 0 0 0 0 0 0 0 0 0 0 0 0 0 0 0 0 0 0 0
0 0 0 0 0 0 0 0 0 0 0 0 0 0 0 0 0 0 0 0 0 0 0 0 0 0 0 0 0 0 0 0
0 0 0 0 0 0 0 0 0 0 0 0 0 0 0 0 0 0 0 0 0 0 0 0 0 0 0 0 0 0 0 0
0 0 0 0 0 0 0 0 0 0 0 0 0 0 0 0 0 0 0 0 0 0 0 0 0 0 0 0 0 0 0 0

GFSFLT1_con_mlcape_006.txt.gz
CAPE
0 0 0 0 9 184 91 0 0 0 0 0 0 0 0 0 0 0 0 0 0 0 0 0 0 0 0 0 0 0 0 0
0 0 0 0 0 1 0 0 0 0 0 0 0 0 0 0 0 0 0 0 0 0 0 0 0 0 0 0 0 0 0 0
0 0 0 0 0 0 0 0 0 0 0 0 0 0 0 0 0 0 0 0 0 0 0 0 0 0 0 0 0 0 0 0
0 0 0 0 0 0 0 0 0 0 0 0 0 0 0 0 0 0 0 0 0 0 0 0 0 0 0 0 0 0 0 0
0 0 0 0 0 0 0 0 0 0 0 0 0 0 0 0 0 0 0 0 0 0 0 0 0 0 0 0 0 0 0 0
0 0 0 0 0 0 0 0 0 0 0 0 0 0 0 0 0 0 0 0 0 0 0 0 0 0 0 0 0 0 0 0
0 0 0 0 0 0 0 0 0 0 0 0 0 0 0 0 0 0 0 0 0 0 0 0 0 0 0 0 0 0 0 0
0 0 0 0 0 0 0 0 0 0 0 0 0 0 0 0 0 0 0 0 0 0 0 0 0 0 0 0 0 0 0 0
0 0 0 0 0 0 0 0 0 0 0 0 0 0 0 0 0 0 0 0 0 0 0 0 0 0 0 0 0 0 0 0
0 0 0 0 0 0 0 0 0 0 0 0 0 0 0 0 0 0 0 0 0 0 0 0 0 0 0 0 0 0 0 0
0 0 0 0 0 0 0 0 0 0 0 0 0 0 0 0 0 0 0 0 0 0 0 0 0 0 0 0 0 0 0 0
0 0 0 0 0 0 0 0 0 0 0 0 0 0 0 0 0 0 0 0 0 0 0 0 0 0 0 0 0 0 0 0
0 0 0 0 0 0 0 0 0 0 0 0 0 0 0 0 0 0 0 0 0 0 0 0 0 0 0 0 0 0 0 0
0 0 0 0 0 0 0 0 0 0 0 0 0 0 0 0 0 0 0 0 0 0 0 0 0 0 0 0 0 0 0 0
0 0 0 0 0 0 0 0 0 0 0 0 0 0 0 0 0 0 0 0 0 0 0 0 0 0 0 0 0 0 0 0
0 0 0 0 0 0 0 0 0 0 0 0 0 0 0 0 0 0 0 0 0 0 0 0 0 0 0 0 0 0 0 0
0 0 0 0 0 0 0 0 0 0 0 0 0 0 0 0 0 0 0 1 0 0 0 0 0 0 0 0 0 0 0 0
0 0 0 0 0 0 0 0 0 0 0 0 0 0 0 0 0 0 0 0 0 0 0 0 0 0 0 0 0 0 0 0
0 0 0 0 0 0 0 0 0 0 0 0 0 0 0 0 0 0 0 0 0 0 0 0 0 0 0 0 0 0 0 0

GFSFLT1_con_mlcape_009.txt.gz
CAPE
0 0 0 9 129 164 97 48 2 0 0 0 0 0 0 0 0 0 0 0 0 0 0 0 0 0 0 0 0 0 0 0
0 0 0 2 94 113 25 0 0 0 0 0 0 0 0 0 0 0 0 0 0 0 0 0 0 0 0 0 0 0 0 0
0 0 17 94 48 8 3 0 0 0 0 0 0 0 0 0 0 0 0 0 0 0 0 0 0 0 0 0 0 0 0 0
0 0 0 0 0 0 0 0 0 0 0 0 0 0 0 0 0 0 0 0 0 0 0 0 0 0 0 0 0 0 0 0
0 0 0 0 0 0 0 0 0 0 0 0 0 0 0 0 0 0 0 0 0 0 0 0 0 0 0 0 0 0 0 0
0 0 0 0 0 0 0 0 0 0 0 0 0 0 0 0 0 0 0 0 0 0 0 0 0 0 0 0 0 0 0 0
0 0 0 0 0 0 0 0 0 0 0 0 0 0 0 0 0 0 0 0 0 0 0 0 0 0 0 0 0 0 0 0
0 0 0 0 0 0 0 0 0 0 0 0 0 0 0 0 0 0 0 0 0 0 0 0 0 0 0 0 0 0 0 0
0 0 0 0 0 0 0 0 0 0 0 0 0 0 0 0 0 0 0 0 0 0 0 0 0 0 0 0 0 0 0 0
0 0 0 0 0 0 0 0 0 0 0 0 0 0 0 0 0 0 0 0 0 0 0 0 0 0 0 0 0 0 0 0
0 0 0 0 0 0 0 0 0 0 0 0 0 0 0 0 0 0 0 0 0 0 0 0 0 0 0 0 0 0 0 0
0 0 0 0 0 0 0 0 0 0 0 0 0 0 0 0 0 0 0 0 0 0 0 0 5 0 0 0 0 0 0 0
0 0 0 0 0 0 0 0 0 0 0 0 0 0 0 0 0 0 0 0 0 0 0 0 5 3 0 0 0 0 0 0
0 0 0 0 0 0 0 0 0 0 0 0 0 0 0 0 0 0 0 0 0 0 0 1 1 0 0 0 0 0 0 0
0 0 0 0 0 0 0 0 0 0 0 0 0 0 0 0 0 0 0 0 0 0 2 3 1 0 0 0 0 0 0 0
0 0 0 0 0 0 0 0 0 0 0 0 0 0 0 0 0 0 0 0 0 0 0 0 0 0 0 0 0 0 0 0
0 0 0 0 0 0 0 0 0 0 0 0 0 0 0 0 0 0 0 0 0 0 0 0 0 0 0 0 0 0 0 0
0 0 0 0 0 0 0 0 0 0 0 0 0 0 0 0 0 0 0 0 0 0 0 0 0 0 0 0 0 0 0 0
0 0 0 0 0 0 0 0 0 0 0 0 0 0 0 0 0 0 0 0 0 0 0 0 0 0 0 0 0 0 0 0

GFSFLT1_con_mlcape_012.txt.gz
CAPE
194 315 429 617 704 877 970 669 480 229 25 0 0 0 0 0 0 0 0 0 0 0 0 0 0 0 0 0 0 0 0 0
308 449 580 680 730 760 852 592 423 287 55 0 0 0 0 0 0 0 0 0 0 0 0 0 0 0 0 0 0 0 0 0
345 591 733 835 835 803 669 505 373 155 12 0 0 0 0 0 0 0 0 0 0 0 0 0 0 0 0 0 0 0 0 1
540 583 529 404 341 264 82 8 0 0 0 0 0 0 0 0 0 0 0 0 0 0 0 0 0 0 0 0 0 0 0 0
49 1 3 0 0 0 0 0 0 0 0 0 0 0 0 0 0 0 0 0 0 0 0 0 0 0 0 0 0 0 0 0
0 0 0 0 0 0 0 0 0 0 0 0 0 0 0 0 0 0 0 0 0 0 0 0 0 0 0 0 0 0 0 0
0 0 0 0 0 0 0 0 0 0 0 0 0 0 0 0 0 0 0 0 0 0 0 0 0 0 2 0 0 0 0 0
0 0 0 0 0 0 0 0 0 0 0 0 0 0 0 0 0 0 0 0 0 0 0 0 0 6 1 2 0 0 0 0
0 0 0 0 0 0 0 0 0 0 0 0 0 0 0 0 0 0 0 0 0 0 0 0 3 12 2 0 8 12 4 2
0 0 0 0 0 0 0 0 0 0 0 0 0 0 0 0 0 0 0 0 0 0 0 7 19 14 13 17 9 9 7 1
0 0 0 0 0 0 0 0 0 0 0 0 0 0 0 0 0 0 0 0 0 0 1 21 35 19 16 11 19 10 2 1
0 0 0 0 0 0 0 0 0 0 0 0 0 0 0 0 0 0 0 0 0 0 0 14 24 21 8 22 15 4 4 6
0 0 0 0 0 0 0 0 0 0 0 0 0 0 0 0 0 0 0 0 0 0 0 8 22 27 28 14 11 2 3 6
0 0 0 0 0 0 0 0 0 0 0 0 0 0 0 0 0 0 0 0 0 0 2 12 18 19 23 9 5 4 6 5
0 0 0 0 0 0 0 0 0 0 0 0 0 0 0 0 0 0 0 0 0 3 6 9 17 9 4 0 4 4 2 0
0 0 0 0 0 0 0 0 0 0 0 0 0 0 0 0 0 0 0 0 1 11 0 0 0 0 0 0 1 2 0 0
0 0 0 0 0 0 0 0 0 0 0 0 0 0 0 0 0 0 0 0 1 14 20 16 18 0 0 0 0 0 0 0
0 0 0 0 0 0 0 0 0 0 0 0 0 0 0 0 0 0 0 0 5 9 20 13 12 7 0 0 0 0 0 0
0 0 0 0 0 0 0 0 0 0 0 0 0 0 0 0 0 0 0 1 2 7 13 21 9 0 0 0 0 0 0 0

GFSFLT1_con_mlcape_015.txt.gz
CAPE
611 595 489 453 653 1203 1294 1133 871 405 262 244 196 53 1 0 0 0 0 0 0 0 0 0 0 0 0 0 0 0 0 0
662 759 931 925 1059 1233 934 850 657 602 584 336 15 0 0 0 0 0 0 0 0 0 0 0 0 0 0 0 0 0 0 0
800 967 1123 1153 1158 1133 926 874 783 688 277 17 2 7 3 0 0 0 0 0 0 0 0 0 0 0 0 0 0 0 0 0
947 1152 1218 1115 1051 999 911 695 507 156 6 0 11 1 0 0 0 0 0 0 0 0 0 0 0 0 0 0 0 0 0 0
998 1049 950 767 619 403 170 24 1 0 0 0 0 8 6 0 0 0 0 0 0 0 0 0 0 0 0 0 0 0 0 0
459 246 104 10 0 0 0 0 0 0 0 0 0 0 0 0 0 0 0 0 0 0 0 0 0 0 0 0 2 2 5 7
6 0 0 0 0 0 0 0 0 0 0 0 0 0 0 0 0 0 0 0 0 0 0 0 0 0 0 3 6 10 15 4
0 0 0 0 0 0 0 0 0 0 0 0 0 0 0 0 0 0 0 0 0 0 0 0 0 0 2 4 8 12 27 1
0 0 0 0 0 0 0 0 0 0 0 0 0 0 0 0 0 0 0 0 0 0 0 0 0 2 10 15 17 20 8 5
0 0 0 0 0 0 0 0 0 0 0 0 0 0 0 0 0 0 0 0 0 0 0 0 2 12 17 24 23 24 18 17
0 0 0 0 0 0 0 0 0 0 0 0 0 0 0 0 0 0 0 0 0 0 0 0 0 27 16 22 18 29 23 7
0 0 0 0 0 0 0 0 0 0 0 0 0 0 0 0 0 0 0 0 0 0 0 0 0 10 22 30 16 30 39 4
0 0 0 0 0 0 0 0 0 0 0 0 0 0 0 0 0 0 0 0 0 0 0 0 4 10 7 23 30 29 20 18
0 0 0 0 0 0 0 0 0 0 0 0 0 0 0 0 0 0 0 0 0 0 2 4 9 7 10 21 24 31 17 17
0 0 0 0 0 0 0 0 0 0 0 0 0 0 0 0 0 0 0 0 0 0 3 3 4 8 5 11 10 8 10 10
0 0 0 0 0 0 0 0 0 0 0 0 0 0 0 0 0 0 0 0 0 0 5 10 18 7 1 0 1 7 10 5
0 0 0 0 0 0 0 0 0 0 0 0 0 0 0 0 0 0 0 0 0 1 9 19 20 7 0 0 0 0 0 4
0 0 0 0 0 0 0 0 0 0 0 0 0 0 0 0 0 0 0 0 2 4 9 15 11 14 0 0 0 0 0 0
0 0 0 0 0 0 0 0 0 0 0 0 0 0 0 0 0 0 0 0 1 3 7 17 20 0 0 0 0 0 0 0

GFSFLT1_con_mlcape_018.txt.gz
CAPE
348 261 225 198 1132 1141 783 767 680 358 204 88 305 131 4 0 0 0 0 0 0 0 0 0 0 0 0 0 0 0 0 0
571 545 519 472 1161 1249 914 743 463 420 308 318 201 1 0 0 0 0 0 0 0 0 0 0 0 0 0 0 0 0 0 0
725 861 989 967 1210 1317 925 719 468 568 628 196 0 0 0 0 0 0 0 0 0 0 0 0 0 0 0 0 0 0 0 0
842 1032 1179 1250 1119 1087 671 594 572 786 221 0 1 0 0 0 0 0 0 0 0 0 0 0 0 0 0 0 0 0 0 0
899 1114 1257 1011 845 794 886 779 524 15 0 0 0 0 0 0 0 0 0 0 0 0 0 0 0 0 0 0 0 0 0 0
910 1136 1105 1068 949 767 262 0 0 0 0 0 0 0 0 0 0 0 0 0 0 0 0 0 0 0 0 0 0 0 0 0
840 742 506 240 80 0 0 0 0 0 0 0 0 0 0 0 0 0 0 0 0 0 0 0 0 0 0 0 0 0 0 0
341 104 7 2 0 0 0 0 0 0 0 0 0 0 0 0 0 0 0 0 0 0 0 0 0 0 0 0 0 0 0 0
22 0 0 0 0 0 0 0 0 0 0 0 0 0 0 0 0 0 0 0 0 0 0 0 0 0 0 0 0 0 0 2
0 0 0 0 0 0 0 0 0 0 0 0 0 0 0 0 0 0 0 0 0 0 0 0 0 0 2 3 0 2 13 7
0 0 0 0 0 0 0 0 0 0 0 0 0 0 0 0 0 0 0 0 0 0 0 0 0 0 5 20 12 18 6 9
0 0 0 0 0 0 0 0 0 0 0 0 0 0 0 0 0 0 0 0 0 0 0 0 0 0 0 0 0 4 7 12
0 0 0 0 0 0 0 0 0 0 0 0 0 0 0 0 0 0 0 0 0 0 0 0 0 1 4 0 8 17 23 16
0 0 0 0 0 0 0 0 0 0 0 0 0 0 0 0 0 0 0 0 0 0 0 0 0 0 0 0 4 23 2 0
3 0 0 0 0 0 0 0 0 0 0 0 0 0 0 0 0 0 0 0 0 0 0 0 1 0 0 0 0 0 0 0
27 48 0 0 0 0 0 0 0 0 0 0 0 0 0 0 0 0 0 0 0 0 0 2 9 4 1 0 0 0 0 0
17 78 53 0 0 0 0 0 0 0 0 0 0 0 0 0 0 0 0 0 0 0 0 2 14 22 0 0 0 0 0 0
0 13 27 0 0 0 0 0 0 0 0 0 0 0 0 0 0 0 0 0 0 0 0 1 1 0 0 0 0 0 0 0
0 0 0 0 0 0 0 0 0 0 0 0 0 0 0 0 0 0 0 0 0 0 0 1 2 0 0 0 0 0 0 0

GFSFLT1_con_mlcape_021.txt.gz
CAPE
38 38 75 308 299 295 240 302 310 165 30 4 38 0 0 0 0 0 0 0 0 0 0 0 0 0 0 0 0 0 0 0
116 85 145 554 427 318 341 303 294 209 13 8 118 0 0 0 0 0 0 0 0 0 0 0 0 0 0 0 0 0 0 0
324 383 558 906 670 464 462 460 386 258 1 156 76 0 0 0 0 0 0 0 0 0 0 0 0 0 0 0 0 0 0 0
549 607 647 1037 841 644 525 466 432 299 241 60 0 0 0 0 0 0 0 0 0 0 0 0 0 0 0 0 0 0 0 0
701 857 871 1074 849 570 589 500 300 394 280 0 0 0 0 0 0 0 0 0 0 0 0 0 0 0 0 0 0 0 0 0
756 960 1052 982 779 608 302 330 309 185 0 0 0 0 0 0 0 0 0 0 0 0 0 0 0 0 0 0 0 0 0 0
783 955 991 863 618 474 262 21 0 0 0 0 0 0 0 0 0 0 0 0 0 0 0 0 0 0 0 0 0 0 0 0
762 815 609 233 106 0 0 0 0 0 0 0 0 0 0 0 0 0 0 0 0 0 0 0 0 0 0 0 0 0 0 0
493 258 80 1 0 0 0 0 0 0 0 0 0 0 0 0 0 0 0 0 0 0 0 0 0 0 0 0 0 0 0 0
156 11 0 0 0 0 0 0 0 0 0 0 0 0 0 0 0 0 0 0 0 0 0 0 0 0 0 0 0 0 0 0
1 0 0 0 0 0 0 0 0 0 0 0 0 0 0 0 0 0 0 0 0 0 0 0 0 0 0 0 5 2 3 0
0 0 0 0 0 0 0 0 0 0 0 0 0 0 0 0 0 0 0 0 0 0 0 0 0 0 0 0 0 0 0 0
0 0 0 0 0 0 0 0 0 0 0 0 0 0 0 0 0 0 0 0 0 0 0 0 0 0 0 0 0 0 0 0
0 0 0 0 0 0 0 0 0 0 0 0 0 0 0 0 0 0 0 0 0 0 0 0 0 0 0 0 0 0 0 0
0 0 0 0 0 0 0 0 0 0 0 0 0 0 0 0 0 0 0 0 0 0 0 0 0 0 0 0 0 0 0 0
0 0 0 0 0 0 0 0 0 0 0 0 0 0 0 0 0 0 0 0 0 0 0 0 0 0 0 0 0 0 0 0
0 0 0 0 0 0 0 0 0 0 0 0 0 0 0 0 0 0 0 0 0 0 0 0 0 0 0 0 0 0 0 0
0 17 6 0 0 0 0 0 0 0 0 0 0 0 0 0 0 0 0 0 0 0 0 0 0 0 0 0 0 0 0 0
0 0 1 0 0 0 0 0 0 0 0 0 0 0 0 0 0 0 0 0 0 0 0 0 0 0 0 0 0 0 0 0

GFSFLT1_con_mlcape_024.txt.gz
CAPE
573 595 455 110 228 452 187 241 103 2 0 0 0 0 0 0 0 0 0 0 0 0 0 0 0 0 0 0 0 0 0 0
232 630 442 145 115 251 246 222 132 41 13 2 0 0 0 0 0 0 0 0 0 0 0 0 0 0 0 0 0 0 0 0
23 246 420 329 228 278 273 198 142 46 29 19 2 0 0 0 0 0 0 0 0 0 0 0 0 0 0 0 0 0 0 0
73 119 404 416 353 359 253 232 207 184 78 24 0 0 0 0 0 0 0 0 0 0 0 0 0 0 0 0 0 0 0 0
258 256 460 476 450 388 344 272 276 241 8 14 5 0 0 0 0 0 0 0 0 0 0 0 0 0 0 0 0 0 0 0
368 575 677 654 451 377 381 306 279 253 0 5 0 0 0 0 0 0 0 0 0 0 0 0 0 0 0 0 0 0 0 0
532 701 839 742 613 588 433 461 277 123 31 0 0 0 0 0 0 0 0 0 0 0 0 0 0 0 0 0 0 0 0 0
688 806 894 861 703 384 175 105 2 0 0 0 0 0 0 0 0 0 0 0 0 0 0 0 0 0 0 0 0 0 0 0
728 805 698 524 177 7 0 0 0 0 0 0 0 0 0 0 0 0 0 0 0 0 0 0 0 0 0 0 0 0 0 0
614 554 474 90 0 0 0 0 0 0 0 0 0 0 0 0 0 0 0 0 0 0 0 0 0 0 0 0 0 0 0 0
471 398 105 0 0 0 0 0 0 0 0 0 0 0 0 0 0 0 0 0 0 0 0 0 0 0 0 0 0 0 0 0
332 162 21 0 0 0 0 0 0 0 0 0 0 0 0 0 0 0 0 0 0 0 0 0 0 0 0 0 0 0 0 0
74 20 0 0 0 0 0 0 0 0 0 0 0 0 0 0 0 0 0 0 0 0 0 0 0 0 0 0 0 0 0 0
0 0 0 0 0 0 0 0 0 0 0 0 0 0 0 0 0 0 0 0 0 0 0 0 0 0 0 0 0 0 0 0
0 0 0 0 0 0 0 0 0 0 0 0 0 0 0 0 0 0 0 0 0 0 0 0 0 0 0 0 0 0 0 0
0 0 0 0 0 0 0 0 0 0 0 0 0 0 0 0 0 0 0 0 0 0 0 0 0 0 0 0 0 0 0 0
0 0 0 0 0 0 0 0 0 0 0 0 0 0 0 0 0 0 0 0 0 0 0 0 0 0 0 0 0 0 0 0
0 0 0 0 0 0 0 0 0 0 0 0 0 0 0 0 0 0 0 0 0 0 0 0 0 0 0 0 0 0 0 0
0 0 0 0 0 0 0 0 0 0 0 0 0 0 0 0 0 0 0 0 0 0 0 0 0 0 0 0 0 0 0 0

GFSFLT1_con_mlcape_027.txt.gz
CAPE
62 60 183 386 367 353 344 285 209 30 0 0 0 0 0 0 0 0 0 0 0 0 0 0 0 0 0 0 0 0 0 0
319 312 358 427 336 343 413 199 54 9 0 0 0 0 0 0 0 0 0 0 0 0 0 0 0 0 0 0 0 0 0 0
519 506 435 323 285 377 337 119 25 9 0 0 0 0 0 0 0 0 0 0 0 0 0 0 0 0 0 0 0 0 0 0
314 460 463 283 164 335 345 176 93 7 4 0 0 0 0 0 0 0 0 0 0 0 0 0 0 0 0 0 0 0 0 0
158 349 486 394 148 165 309 197 153 50 15 6 0 0 0 0 0 0 0 0 0 0 0 0 0 0 0 0 0 0 0 0
117 118 380 367 235 50 159 208 151 122 4 6 0 0 0 0 0 0 0 0 0 0 0 0 0 0 0 0 0 0 0 0
108 108 280 325 263 172 122 238 152 113 68 0 0 0 0 0 0 0 0 0 0 0 0 0 0 0 0 0 0 0 0 0
179 401 377 373 388 429 289 248 121 117 11 0 0 0 0 0 0 0 0 0 0 0 0 0 0 0 0 0 0 0 0 0
176 460 639 580 546 487 416 150 40 12 1 0 0 0 0 0 0 0 0 0 0 0 0 0 0 0 0 0 0 0 0 0
266 496 730 694 631 443 286 62 2 0 0 0 0 0 0 0 0 0 0 0 0 0 0 0 0 0 0 0 0 0 0 0
259 390 519 445 400 207 0 0 0 0 0 0 0 0 0 0 0 0 0 0 0 0 0 0 0 0 0 0 0 0 0 0
315 387 300 283 127 42 0 0 0 0 0 0 0 0 0 0 0 0 0 0 0 0 0 0 0 0 0 0 0 0 0 0
312 424 214 56 44 0 0 0 0 0 0 0 0 0 0 0 0 0 0 0 0 0 0 0 0 0 0 0 0 0 0 0
167 154 142 42 0 0 0 0 0 0 0 0 0 0 0 0 0 0 0 0 0 0 0 0 0 0 0 0 0 0 0 0
86 81 25 0 0 0 0 0 0 0 0 0 0 0 0 0 0 0 0 0 0 0 0 0 0 0 0 0 0 0 0 0
0 0 0 0 0 0 0 0 0 0 0 0 0 0 0 0 0 0 0 0 0 0 0 0 0 0 0 0 0 0 0 0
0 0 0 0 0 0 0 0 0 0 0 0 0 0 0 0 0 0 0 0 0 0 0 0 0 0 0 0 0 0 0 0
0 0 0 0 0 0 0 0 0 0 0 0 0 0 0 0 0 0 0 0 0 0 0 0 0 0 0 0 0 0 0 0
0 0 0 0 0 0 0 0 0 0 0 0 0 0 0 0 0 0 0 0 0 0 0 0 0 0 0 0 0 0 0 0

GFSFLT1_con_mlcape_030.txt.gz
CAPE
101 1 0 14 108 227 269 255 218 33 0 0 0 0 0 0 0 0 0 0 0 0 0 0 0 0 0 0 0 0 0 0
128 25 9 125 241 365 331 243 153 36 4 7 0 0 0 0 0 0 0 0 0 0 0 0 0 0 0 0 0 0 0 0
251 112 58 138 253 309 275 250 145 75 51 6 0 0 0 0 0 0 0 0 0 0 0 0 0 0 0 0 0 0 0 0
408 318 203 173 247 267 221 192 149 61 0 0 0 0 0 0 0 0 0 0 0 0 0 0 0 0 0 0 0 0 0 0
349 421 413 304 278 248 242 240 166 7 0 0 0 0 0 0 0 0 0 0 0 0 0 0 0 0 0 0 0 0 0 0
243 265 417 385 237 245 216 202 136 4 0 0 0 0 0 0 0 0 0 0 0 0 0 0 0 0 0 0 0 0 0 0
17 86 231 362 210 167 105 110 162 36 0 0 0 0 0 0 0 0 0 0 0 0 0 0 0 0 0 0 0 0 0 0
3 23 70 238 293 224 45 5 39 51 4 0 0 0 0 0 0 0 0 0 0 0 0 0 0 0 0 0 0 0 0 0
0 95 46 118 149 159 114 47 23 18 22 0 0 0 0 0 0 0 0 0 0 0 0 0 0 0 0 0 0 0 0 0
3 112 174 143 134 133 203 97 43 0 19 0 0 0 0 0 0 0 0 0 0 0 0 0 0 0 0 0 0 0 0 0
0 86 217 251 233 216 161 47 21 0 0 0 0 0 0 0 0 0 0 0 0 0 0 0 0 0 0 0 0 0 0 0
10 90 190 185 183 171 69 34 35 0 0 0 0 0 0 0 0 0 0 0 0 0 0 0 0 0 0 0 0 0 0 0
73 147 137 127 189 138 133 1 0 0 0 0 0 0 0 0 0 0 0 0 0 0 0 0 0 0 0 0 0 0 0 0
46 140 147 120 83 26 19 0 0 0 0 0 0 0 0 0 0 0 0 0 0 0 0 0 0 0 0 0 0 0 0 0
13 58 78 20 0 10 0 0 0 0 0 0 0 0 0 0 0 0 0 0 0 0 0 0 0 0 0 0 0 0 0 0
0 2 4 0 0 0 0 0 0 0 0 0 0 0 0 0 0 0 0 0 0 0 0 0 0 0 0 0 0 0 0 0
0 0 0 0 0 0 0 0 0 0 0 0 0 0 0 0 0 0 0 0 0 0 0 0 0 0 0 0 0 0 0 0
0 0 0 0 0 0 0 0 0 0 0 0 0 0 0 0 0 0 0 0 0 0 0 0 0 0 0 0 0 0 0 0
0 0 0 0 0 0 0 0 0 0 0 0 0 0 0 0 0 0 0 0 0 0 0 0 0 0 0 0 0 0 0 0

GFSFLT1_con_mlcape_036.txt.gz
CAPE
87 85 0 0 0 0 0 94 264 462 336 65 1 242 428 526 471 287 69 0 0 0 0 0 0 0 0 0 0 0 0 0
143 69 11 0 0 30 75 132 346 526 326 20 28 160 352 380 415 233 47 0 0 0 0 0 0 0 0 0 0 0 0 0
250 275 116 40 55 105 162 279 460 539 356 58 180 341 358 272 89 1 0 0 0 0 0 0 0 0 0 0 0 0 0 0
491 433 455 230 113 154 199 358 563 701 471 178 169 334 142 17 0 0 0 0 0 0 0 0 0 0 0 0 0 0 0 0
555 764 569 507 327 258 288 334 566 711 592 254 83 78 200 24 0 0 0 0 0 0 0 0 0 0 0 0 0 0 0 0
513 623 832 638 459 369 468 495 597 769 726 461 261 217 332 121 0 0 0 0 0 0 0 0 0 0 0 0 0 0 0 0
591 653 770 902 727 552 553 593 665 788 645 310 193 177 285 22 0 0 0 0 0 0 0 0 0 0 0 0 0 0 0 0
566 664 785 944 1022 965 851 761 599 632 409 89 63 141 207 0 0 0 0 0 0 0 0 0 0 0 0 0 0 0 0 0
534 593 657 826 1070 1264 1128 1021 614 156 66 81 174 184 163 2 2 0 0 0 0 0 0 0 0 0 0 0 0 0 0 0
243 517 597 673 784 1144 1178 1056 726 454 70 0 15 40 42 3 0 0 0 0 0 0 0 0 0 0 0 0 0 0 0 0
32 101 235 519 591 890 1008 1083 1055 810 16 25 60 71 28 12 0 0 0 0 0 0 0 0 0 0 0 0 0 0 0 0
228 234 260 378 465 686 795 969 1083 1085 346 280 190 232 152 61 5 0 0 0 0 0 0 0 0 0 0 0 0 0 0 0
434 507 581 677 679 694 779 848 892 980 998 879 586 404 169 37 2 1 0 0 0 0 0 0 0 0 0 0 0 0 0 0
406 642 779 846 912 941 931 952 904 880 676 478 213 5 3 3 2 1 0 0 0 0 0 0 0 0 0 0 0 0 0 0
273 575 696 715 707 617 562 529 349 65 0 0 1 1 1 1 1 0 1 0 0 0 0 0 0 0 0 0 1 0 3 0
27 446 589 499 427 350 268 44 0 0 0 0 0 0 0 0 0 0 0 0 0 0 0 0 0 0 0 0 0 3 6 0
9 101 230 173 108 57 0 0 0 0 0 0 0 0 0 0 0 0 0 0 0 0 0 0 0 0 0 0 0 0 6 0
0 0 0 0 0 0 0 0 0 0 0 0 0 0 0 0 0 0 0 0 0 0 0 0 0 0 0 0 0 0 3 0
0 0 0 0 0 0 0 0 0 0 0 0 0 0 0 0 0 0 0 0 0 0 0 1 2 1 0 0 0 1 0 0

GFSFLT1_con_mlcape_039.txt.gz
CAPE
108 25 12 19 3 0 0 30 31 115 78 93 32 23 94 93 442 444 419 275 154 142 66 8 0 0 0 0 0 0 0 0
112 0 2 0 4 0 6 9 87 135 112 37 11 0 48 296 448 448 397 273 119 116 67 0 0 0 0 0 0 0 0 0
109 92 0 0 1 1 1 1 52 200 254 36 0 4 80 197 400 494 494 388 112 88 16 0 0 0 0 0 0 0 0 0
102 102 94 21 40 73 99 144 198 388 360 154 33 136 259 317 311 346 317 272 49 0 0 0 0 0 0 0 0 0 0 0
146 201 193 120 100 142 202 305 356 556 604 428 65 139 357 385 425 249 149 30 0 0 0 0 0 0 0 0 0 0 0 0
252 267 322 391 279 252 309 352 381 581 695 674 351 222 311 418 362 191 70 0 0 0 0 0 0 0 0 0 0 0 0 0
250 316 416 381 433 469 450 362 350 427 872 714 553 448 338 387 439 109 4 0 0 0 0 0 0 0 0 0 0 0 0 0
234 269 380 616 693 708 646 524 501 492 802 964 734 468 458 309 351 52 0 0 0 0 0 0 0 0 0 0 0 0 0 0
259 203 432 679 884 1094 957 849 831 725 888 846 465 7 37 66 466 81 0 1 0 0 0 0 0 0 0 0 0 0 0 0
352 304 253 612 861 1170 1460 1245 1147 1002 1003 552 281 100 123 355 352 138 18 0 0 0 0 0 0 0 0 0 0 0 0 0
193 387 442 503 759 1024 1581 1729 1472 1275 693 587 195 280 489 492 296 125 0 0 0 0 0 0 0 0 0 0 0 0 0 0
308 253 302 492 730 959 1208 1694 1661 1376 1039 773 161 177 213 234 218 75 0 0 0 0 0 0 0 0 0 0 0 0 0 0
420 544 541 522 606 791 1075 1440 1581 1500 1392 686 277 552 442 308 188 64 0 0 0 0 0 0 0 0 0 0 0 0 0 0
370 735 922 991 965 984 1074 1237 1346 1426 1546 868 797 752 548 330 92 3 0 1 0 0 0 0 0 0 0 0 0 0 0 0
132 625 987 1147 1246 1269 1278 1349 1361 1356 1369 1313 975 228 34 1 1 0 0 0 0 0 0 0 0 0 0 0 0 0 11 0
11 537 902 1039 1069 1031 1069 960 895 545 422 417 196 1 0 0 0 0 0 0 0 0 0 0 0 0 0 0 0 2 7 0
178 473 829 821 815 813 556 321 177 91 26 0 0 0 1 1 1 0 0 0 0 0 0 0 0 0 0 0 0 6 3 1
179 384 505 467 313 173 38 0 0 0 0 0 0 0 0 0 0 0 0 0 0 0 0 0 0 0 0 0 0 0 0 0
0 0 0 0 0 0 0 0 0 0 0 0 0 0 0 0 0 0 0 0 0 0 0 0 0 0 0 0 0 0 0 2

GFSFLT1_con_mlcape_042.txt.gz
CAPE
15 0 0 0 0 0 0 0 0 0 0 0 15 103 64 26 11 228 218 372 421 360 254 86 9 0 0 0 0 0 0 0
125 2 0 0 0 0 0 0 0 0 2 38 53 7 33 41 179 299 400 382 364 254 208 38 2 0 0 0 0 0 0 0
2 0 0 0 0 0 0 0 0 0 22 0 16 0 0 35 255 416 417 378 261 210 196 25 7 0 0 0 0 0 0 0
4 0 0 0 0 0 0 0 1 25 53 40 14 2 0 57 154 275 346 385 254 150 170 34 0 0 0 0 0 0 0 0
78 18 0 0 0 0 0 0 0 66 155 304 24 0 1 148 237 280 283 416 352 107 43 1 0 0 0 0 0 0 0 0
73 113 91 2 40 55 4 4 77 150 167 369 284 23 190 281 299 254 246 232 137 33 0 0 0 0 0 0 0 0 0 0
161 172 184 188 108 135 210 204 256 336 385 353 430 143 308 374 281 242 253 73 1 0 0 0 0 0 0 0 0 0 0 0
242 199 278 330 302 245 299 352 405 447 630 634 566 547 433 321 214 187 178 28 0 0 0 0 0 0 0 0 0 0 0 0
244 235 332 369 492 494 430 411 403 449 608 760 687 467 453 446 319 160 93 36 1 0 0 0 0 0 0 0 0 0 0 0
307 207 170 463 562 709 747 713 532 579 572 979 856 160 584 521 340 207 98 66 1 0 0 0 0 0 0 0 0 0 0 0
200 203 328 225 709 915 978 853 676 782 835 1098 963 458 453 229 240 389 239 63 0 0 0 0 0 0 0 0 0 0 0 0
160 132 161 362 472 819 1274 1280 1179 1096 1132 1104 933 691 431 439 533 569 346 0 0 0 0 0 0 0 0 0 0 0 0 0
224 371 316 290 376 770 1600 1713 1574 1260 1342 1150 917 493 214 296 342 368 42 0 0 0 0 0 0 0 0 0 0 0 0 0
101 468 616 671 597 668 1144 1584 1669 1303 1249 1049 953 445 427 358 300 180 0 0 0 0 0 0 0 0 0 0 0 0 0 0
5 430 752 984 976 951 1029 1307 1381 1299 1275 1056 806 359 420 241 66 0 0 0 0 0 0 0 0 0 0 0 0 0 0 0
0 182 821 1119 1279 1211 1252 1309 1178 1109 1040 596 389 204 21 0 0 0 0 0 0 0 0 0 0 0 0 0 0 0 0 0
0 30 865 1108 1204 1196 1173 827 685 442 349 69 28 0 0 0 0 0 0 0 0 0 0 0 0 0 0 0 0 0 0 0
105 209 873 939 967 822 561 345 259 159 12 0 0 0 0 0 0 0 0 0 0 0 0 0 0 0 0 0 0 0 0 0
172 513 629 534 398 225 37 5 1 0 0 0 0 0 0 0 0 0 0 0 0 0 0 0 0 0 0 0 0 0 0 0

GFSFLT1_con_mlcape_045.txt.gz
CAPE
0 0 0 0 0 1 0 0 0 0 0 0 0 0 0 0 0 0 0 115 41 158 195 54 0 0 0 0 0 0 0 0
0 0 0 0 0 0 0 0 0 0 0 0 0 0 0 0 0 0 0 0 119 258 165 60 0 0 0 0 0 0 0 0
0 0 0 0 0 0 0 0 0 0 0 0 0 0 0 0 0 0 0 0 70 176 61 33 0 0 0 0 0 0 0 0
0 0 0 0 0 0 0 0 0 0 0 0 1 10 2 0 0 0 0 83 188 137 88 31 0 0 0 0 0 0 0 0
0 0 0 0 0 0 0 0 0 0 0 0 0 0 0 0 0 0 21 131 194 173 96 47 3 0 0 0 0 0 0 0
0 0 0 0 0 0 0 0 0 0 0 0 0 0 0 0 0 16 82 163 212 162 76 25 0 0 0 0 0 0 0 0
1 0 0 0 0 0 0 0 0 0 0 1 16 44 0 0 15 55 129 141 147 107 0 2 0 0 0 0 0 0 0 0
10 0 0 0 0 0 0 0 0 0 0 20 11 46 72 9 55 122 97 80 50 38 1 0 0 0 0 0 0 0 0 0
38 35 3 0 0 0 0 0 0 0 0 6 32 37 62 52 99 126 112 51 35 1 0 0 0 0 0 0 0 0 0 0
10 28 30 16 4 12 61 58 33 50 165 220 200 194 240 121 80 145 142 75 11 0 0 0 0 0 0 0 0 0 0 0
81 15 48 72 78 92 10 116 147 88 152 305 349 359 255 291 228 231 148 50 1 0 0 0 0 0 0 0 0 0 0 0
100 88 161 105 165 321 243 122 158 137 120 272 445 437 355 223 237 274 181 19 0 0 0 0 0 0 0 0 0 0 0 0
97 226 180 67 53 293 162 304 239 226 201 337 549 404 212 56 175 281 173 53 0 0 0 0 0 0 0 0 0 0 0 0
163 267 285 285 138 200 161 478 282 352 401 670 530 334 356 285 226 270 137 27 0 0 0 0 0 0 0 0 0 0 0 0
51 191 371 444 590 659 953 847 757 592 653 755 639 450 223 164 153 56 7 0 0 0 0 0 0 0 0 0 0 0 0 0
1 127 370 629 740 830 998 1199 1199 946 973 774 556 205 51 30 13 5 0 0 0 0 0 0 0 0 0 0 0 0 0 0
0 49 563 894 952 881 673 731 767 816 679 410 141 48 0 0 0 0 0 0 0 0 0 0 0 0 0 0 0 0 0 0
0 68 651 924 945 796 601 382 270 313 201 49 0 0 0 0 0 0 0 0 0 0 0 0 0 0 0 0 0 0 0 0
0 88 559 693 602 433 183 36 0 0 0 0 0 0 0 0 0 0 0 0 0 0 0 0 0 0 0 0 0 0 0 0

GFSFLT1_con_mlcape_048.txt.gz
CAPE
0 1 1 0 1 0 0 0 0 0 0 0 0 0 0 0 0 0 0 47 57 121 110 69 11 0 0 0 0 0 0 0
0 0 0 0 0 0 1 0 0 0 0 0 0 2 0 0 0 0 0 0 14 74 57 37 2 0 0 0 0 0 0 0
0 0 0 0 0 0 0 0 0 0 0 0 0 0 1 0 0 0 0 0 4 56 60 39 0 0 0 0 0 0 0 0
0 0 0 0 0 0 0 0 0 0 0 0 0 0 0 0 0 0 0 0 0 5 10 40 0 0 0 0 0 0 0 0
0 0 0 0 0 0 0 0 0 0 0 0 0 0 0 0 0 0 0 0 4 0 13 23 0 0 0 0 0 0 0 0
0 0 0 0 0 0 0 0 0 0 0 0 0 0 0 0 0 0 0 0 5 9 54 72 25 0 0 0 0 0 0 0
0 0 0 0 0 0 0 0 0 0 0 0 0 0 0 0 0 0 0 1 4 29 64 66 4 0 0 0 0 0 0 0
2 0 0 0 0 0 0 0 0 0 0 0 0 0 0 0 0 0 0 2 18 49 54 19 4 0 0 0 0 0 0 0
0 0 0 0 0 0 0 0 0 0 0 0 0 0 2 2 0 0 0 0 9 41 39 9 0 0 0 0 0 0 0 0
27 3 0 0 0 0 0 0 0 0 0 0 0 10 14 41 50 27 1 0 26 3 8 0 0 0 0 0 0 0 0 0
64 18 0 0 0 0 0 0 0 0 0 0 0 3 15 31 30 59 37 2 12 1 0 0 0 0 0 0 0 0 0 0
26 54 31 1 0 0 0 0 0 0 0 0 0 5 14 9 20 25 58 32 35 29 8 0 0 0 0 0 0 0 0 0
64 30 60 52 19 0 0 9 12 19 20 36 40 112 130 65 15 52 59 1 5 11 0 0 0 0 0 0 0 0 0 0
33 39 31 64 66 88 70 34 45 97 139 103 62 101 133 129 132 219 0 0 0 0 0 0 0 0 0 0 0 0 0 0
14 72 95 74 58 148 220 219 165 99 155 196 158 228 225 230 226 230 20 0 0 0 0 0 0 0 0 0 0 0 0 0
2 67 108 120 135 199 184 223 212 264 263 258 293 202 282 297 155 56 26 11 0 0 0 0 0 0 0 0 0 0 0 0
0 67 121 280 412 519 521 513 414 400 429 429 347 89 61 18 49 45 27 0 0 0 0 0 0 0 0 0 0 0 0 0
0 2 114 313 429 489 509 539 605 627 549 305 6 0 19 9 0 0 0 0 0 0 0 0 0 0 0 0 0 0 0 0
0 0 73 321 336 326 256 185 244 177 75 4 3 2 1 1 0 0 0 0 0 0 0 0 0 0 0 0 0 0 0 0

GFSFLT1_con_mlcape_054.txt.gz
CAPE
0 0 0 0 1 1 0 0 2 2 0 0 2 8 12 2 8 14 21 18 9 14 5 2 4 0 0 0 0 0 0 0
0 0 0 0 0 1 0 1 1 0 0 0 20 3 0 6 21 19 26 26 23 39 32 29 14 0 1 0 0 0 0 0
0 0 0 0 0 0 0 1 1 0 0 0 0 0 2 3 19 45 54 72 105 110 66 105 65 0 0 0 0 0 0 0
0 0 0 0 0 0 3 0 0 1 0 0 0 1 1 5 0 7 19 29 14 45 59 67 46 3 10 0 0 0 0 0
0 0 0 0 0 0 0 0 0 0 0 0 0 0 0 0 0 0 0 1 0 0 5 32 44 28 11 1 0 0 0 0
0 0 0 0 0 0 0 0 0 0 0 0 0 0 0 0 0 0 0 0 0 0 0 0 0 0 15 10 0 0 0 0
0 0 0 0 0 0 0 0 0 0 0 0 0 0 0 0 0 0 0 0 0 0 0 0 0 0 0 0 0 0 0 0
0 0 0 0 0 0 0 0 0 0 0 0 0 0 0 0 0 0 0 0 0 0 0 0 0 0 0 0 2 0 0 0
0 0 0 0 0 0 0 0 0 0 0 0 0 0 0 0 0 0 0 0 0 0 0 0 0 0 0 2 10 0 0 0
0 0 0 0 0 0 0 0 0 0 0 0 0 0 0 0 0 0 0 0 0 0 0 0 0 0 1 6 1 3 0 0
0 0 0 0 0 0 0 0 0 0 0 0 0 0 0 0 0 0 0 0 0 0 0 0 0 3 5 3 0 0 0 0
0 0 0 0 0 0 0 0 0 0 0 0 0 0 0 0 0 0 0 0 0 0 0 0 0 0 0 0 0 0 1 0
0 0 0 0 0 0 0 0 0 0 0 0 0 0 0 0 0 0 0 0 0 0 0 0 0 0 0 0 0 0 0 0
0 0 0 0 0 0 0 0 0 0 0 0 0 0 0 0 0 0 0 0 0 0 0 0 2 5 0 0 1 1 0 0
0 0 0 0 0 0 0 0 0 0 0 0 0 0 0 0 0 0 0 0 0 0 0 0 0 0 0 0 0 1 0 0
0 0 0 0 0 0 0 0 0 0 0 0 0 0 0 0 0 0 0 0 0 0 0 0 1 0 0 0 0 0 1 0
0 0 0 0 0 0 0 0 0 0 0 0 0 0 0 0 0 0 0 0 1 1 0 1 1 1 1 0 0 1 1 2
0 0 0 0 0 0 0 10 1 0 0 0 0 0 0 0 0 0 2 1 2 0 0 1 1 1 0 0 0 1 2 1
0 0 0 0 0 0 6 8 25 20 7 1 0 0 0 0 1 1 1 0 0 0 0 1 1 1 1 0 1 1 1 1

GFSFLT1_con_mlcape_057.txt.gz
CAPE
0 1 2 1 1 2 0 1 2 3 0 0 2 1 0 0 0 8 19 10 15 11 7 0 0 7 0 0 0 0 0 0
0 0 2 2 1 1 1 1 2 3 2 3 1 0 0 6 3 16 13 22 21 19 19 8 3 3 3 2 0 0 0 0
0 0 1 2 2 1 2 2 1 2 3 6 4 0 0 9 32 34 37 41 31 42 35 22 25 9 4 3 0 0 0 0
0 0 1 3 2 3 1 2 2 2 4 4 2 1 0 2 7 23 34 55 81 69 62 71 76 37 36 20 0 0 0 0
0 0 0 2 1 4 6 1 1 2 1 1 0 0 0 0 2 6 3 41 63 106 100 61 70 42 40 19 1 0 0 0
0 0 0 0 2 1 4 2 1 0 1 0 0 0 0 4 0 5 5 16 18 20 22 23 15 46 64 35 5 0 0 0
0 0 0 0 0 2 3 2 0 0 0 0 0 0 0 0 0 2 1 0 0 5 1 6 5 32 37 37 49 13 0 0
0 0 0 0 0 0 2 1 1 0 0 0 0 0 0 0 0 0 0 0 0 0 0 0 0 0 0 0 0 3 5 4
0 0 0 0 0 0 0 0 0 0 0 0 0 0 0 0 0 0 0 0 0 0 0 0 0 0 0 0 0 0 0 0
0 0 0 0 0 0 0 0 0 0 0 0 0 0 0 0 0 0 0 0 0 0 0 0 0 0 0 0 0 0 0 0
0 0 0 0 0 0 0 0 0 0 0 0 0 0 0 0 0 0 0 0 0 0 0 0 0 0 0 0 0 0 0 0
0 0 0 0 0 0 0 0 0 0 0 0 0 0 0 0 0 0 0 0 0 0 0 0 0 0 0 0 0 1 0 0
0 0 0 0 0 0 0 0 0 0 0 0 0 0 0 0 0 0 0 0 0 0 0 0 0 0 0 0 0 0 0 0
0 0 0 0 0 0 0 0 0 0 0 0 0 0 0 0 0 0 0 0 0 0 0 0 0 0 0 0 0 0 0 1
0 0 0 0 0 0 0 0 0 0 0 0 0 0 0 0 0 0 0 0 0 0 0 0 0 0 0 0 0 0 1 1
0 0 0 0 0 0 0 0 0 0 0 0 0 0 0 0 0 0 0 0 0 0 0 0 0 0 1 1 0 0 2 1
0 0 0 0 0 0 0 0 0 0 0 0 0 0 0 0 0 0 0 0 0 0 0 0 1 2 0 0 0 1 2 2
0 0 0 0 0 0 0 5 0 1 0 0 0 0 0 0 0 0 0 0 0 0 2 5 4 4 0 0 0 1 1 2
0 0 0 0 0 0 0 0 0 7 8 9 0 0 0 0 0 0 0 0 1 1 1 1 0 0 0 0 0 1 1 2

GFSFLT1_con_mlcape_060.txt.gz
CAPE
0 0 0 3 8 2 4 2 3 1 0 0 0 0 0 1 32 103 59 48 67 30 19 53 42 1 1 0 0 0 0 0
0 0 0 3 2 5 1 2 2 2 1 0 1 0 0 0 24 37 71 67 87 75 66 66 55 47 45 31 6 0 0 0
0 0 0 0 5 10 1 1 2 2 2 0 0 4 1 1 11 30 67 94 90 88 72 62 52 89 87 67 25 16 2 0
0 0 0 0 1 1 11 10 2 2 0 3 12 21 2 6 3 6 37 103 153 79 81 101 95 92 131 137 98 78 68 5
0 0 0 0 0 4 10 19 10 4 4 3 4 0 0 0 0 5 38 71 114 108 80 131 154 154 132 170 185 158 148 122
3 0 0 0 0 1 5 10 6 2 4 3 2 0 0 0 0 1 50 46 84 92 101 156 192 160 145 157 135 128 148 122
22 0 0 0 0 0 2 2 7 3 3 3 2 2 0 0 0 0 3 12 32 40 51 83 156 87 31 8 34 169 179 144
20 2 0 0 0 0 0 2 2 5 3 3 2 4 1 0 0 0 0 1 6 6 25 79 50 3 0 1 12 72 109 113
28 19 0 0 0 0 0 0 2 6 7 4 3 5 2 0 0 0 0 0 0 0 0 8 13 4 9 44 43 41 69 79
31 50 25 3 0 0 0 0 0 3 2 3 2 3 6 2 0 0 0 0 0 0 0 0 18 31 31 46 45 15 44 61
35 82 57 32 0 0 0 0 0 0 1 5 5 4 5 7 5 0 0 0 0 0 0 0 0 6 14 24 31 18 23 26
78 95 87 65 34 0 0 0 0 0 0 0 0 0 2 8 5 4 1 0 0 0 0 0 0 0 0 9 4 0 4 4
38 129 123 51 56 23 4 0 0 0 0 0 0 0 0 0 0 0 1 0 0 0 0 0 0 0 0 0 0 1 3 11
32 64 126 148 84 53 21 5 0 0 0 0 0 0 0 0 0 0 0 1 1 2 3 0 0 0 0 0 0 0 2 14
0 36 26 100 131 97 40 20 7 0 0 0 0 0 0 0 0 0 0 0 1 1 0 0 0 0 0 0 0 0 5 0
0 0 0 13 56 121 92 52 27 6 0 0 0 0 0 0 0 0 0 0 0 0 0 0 0 0 0 0 2 3 1 0
0 0 0 0 11 69 111 85 61 28 0 0 0 0 0 0 0 0 0 0 0 0 0 0 0 1 0 0 0 2 4 0
0 0 0 0 0 0 52 137 102 64 43 20 2 0 0 0 0 0 0 0 0 0 0 0 0 3 4 0 0 2 0 1
0 0 0 0 0 0 0 20 126 131 107 83 38 18 15 12 10 4 3 5 3 5 4 4 4 4 2 0 0 0 1 0

GFSFLT1_con_mlcape_063.txt.gz
CAPE
32 0 0 0 10 11 5 2 2 0 5 4 11 6 2 1 0 39 91 75 89 85 91 81 33 18 13 19 3 0 1 0
10 0 0 0 3 13 5 2 2 0 3 1 1 5 5 8 5 41 61 49 71 60 91 127 118 38 23 35 10 0 0 0
0 0 0 0 0 4 2 3 2 1 0 1 4 2 2 1 1 33 66 61 130 98 112 134 158 115 103 76 68 38 2 0
29 0 0 0 0 2 2 3 2 1 0 0 10 3 3 0 4 10 25 63 105 143 171 152 117 182 153 158 160 113 56 5
107 3 0 0 0 1 14 13 4 1 3 1 1 0 0 0 0 4 12 12 88 104 92 100 159 136 127 163 181 148 131 89
65 65 6 0 0 0 0 10 11 5 4 3 0 0 4 14 1 5 7 0 51 75 75 49 107 180 140 201 197 178 185 83
32 82 51 0 0 0 0 2 9 10 3 2 1 0 3 8 9 5 4 5 23 36 46 56 39 132 153 162 160 227 191 170
8 74 68 1 0 0 0 1 1 5 5 4 2 1 1 1 1 0 0 0 6 15 51 69 59 52 85 50 162 162 175 128
17 60 83 23 0 0 0 0 0 2 4 3 6 3 8 2 1 0 0 0 0 12 59 49 61 29 36 55 51 51 45 50
15 53 112 55 6 0 0 0 0 0 3 3 3 3 2 2 1 0 0 0 4 27 31 49 56 67 75 54 23 5 41 36
6 63 135 107 37 0 0 0 0 0 0 3 5 4 6 4 0 2 0 0 10 8 21 11 14 17 24 47 21 13 29 53
11 86 156 199 127 38 2 0 0 0 0 0 5 2 8 12 7 8 1 3 1 0 0 0 0 0 0 11 29 20 23 28
57 136 211 250 227 143 46 7 0 0 4 4 4 3 5 3 2 5 8 2 0 4 2 0 0 0 1 1 0 3 9 0
32 180 244 308 308 283 167 79 19 0 0 10 30 62 81 68 71 3 7 11 4 5 16 6 3 1 1 0 0 1 14 12
3 65 150 301 305 303 298 215 116 38 2 6 23 49 35 41 31 21 10 9 2 3 3 12 13 11 17 19 21 16 12 12
2 7 24 67 158 279 280 250 228 149 62 19 30 51 51 30 38 26 8 0 0 5 14 10 4 2 5 4 4 5 11 14
0 0 0 0 0 55 183 255 247 207 165 106 53 40 34 39 43 38 21 9 2 2 0 0 0 0 0 0 0 21 2 2
0 0 0 0 0 0 1 98 234 234 216 182 135 92 70 63 58 27 29 25 12 5 3 1 0 0 0 0 0 0 4 12
0 0 0 0 0 0 0 0 30 218 235 225 176 156 116 101 71 51 52 48 36 30 26 13 14 29 4 0 0 0 5 8

GFSFLT1_con_mlcape_066.txt.gz
CAPE
129 0 0 19 4 11 0 2 3 4 0 0 3 5 14 3 2 0 3 3 38 55 36 61 66 11 60 33 16 25 3 2
85 0 0 0 9 1 3 2 1 0 0 2 1 1 1 2 0 0 0 8 28 34 39 40 44 51 25 31 35 3 6 0
92 0 0 0 12 3 4 4 0 0 0 0 3 1 1 0 1 0 0 7 12 7 22 52 55 48 18 14 5 0 0 0
78 0 0 0 23 0 2 3 0 0 1 1 7 2 2 1 0 3 0 3 5 10 55 41 52 92 36 27 33 1 2 0
98 6 0 0 2 0 0 1 1 0 0 2 0 2 1 0 1 0 0 1 16 14 37 44 44 119 91 67 52 89 69 13
105 49 0 0 1 2 0 0 1 1 2 2 0 1 1 0 1 0 0 0 15 27 66 59 137 30 116 100 92 107 152 80
4 131 5 0 3 4 0 0 1 3 2 1 0 0 0 0 0 0 0 0 1 20 45 55 72 53 72 67 40 36 82 77
0 100 71 0 3 14 0 0 3 2 4 1 1 0 0 0 0 0 0 0 0 0 17 40 24 21 68 67 42 26 46 52
0 36 126 7 0 10 4 0 1 4 2 3 0 0 0 0 0 0 0 0 0 0 0 7 19 27 17 53 39 17 3 5
0 6 168 51 0 0 0 0 0 2 4 2 4 0 0 0 0 0 0 0 0 0 0 2 4 25 32 10 9 0 0 5
0 0 198 164 0 0 9 0 0 0 2 3 3 6 5 1 0 0 0 0 0 0 0 8 5 12 28 23 17 1 1 5
13 24 207 282 97 7 10 0 0 0 0 1 3 5 4 6 1 0 0 0 0 0 0 6 16 33 33 11 3 0 1 1
6 63 170 345 255 76 17 0 0 0 0 0 0 3 5 8 4 4 2 0 0 0 0 3 0 0 8 10 9 12 11 2
27 183 188 338 351 305 136 40 4 0 15 5 1 0 1 4 16 4 2 3 0 0 0 3 0 0 0 0 0 0 0 0
0 22 193 328 402 407 395 241 95 23 0 31 27 11 2 0 6 48 11 32 12 0 0 0 1 0 0 0 0 0 0 0
0 0 0 2 119 381 409 482 374 171 77 13 30 81 80 53 31 32 41 36 40 31 1 0 1 1 0 0 0 0 0 0
1 0 0 0 0 0 0 202 380 417 236 159 73 38 109 98 102 143 137 110 49 45 33 24 2 0 0 0 0 0 2 5
0 0 3 1 0 0 0 0 0 359 408 380 249 140 76 120 128 114 104 89 68 57 51 53 38 43 24 0 0 0 20 44
0 0 0 0 0 0 0 0 0 1 86 417 386 316 200 137 101 93 109 103 99 91 72 48 51 55 23 11 0 0 2 4

GFSFLT1_con_mlcape_069.txt.gz
CAPE
9 0 0 0 0 0 0 2 2 0 1 3 1 5 1 1 0 1 8 2 3 7 12 19 65 3 0 0 1 0 0 0
0 0 0 0 0 0 2 3 2 1 0 1 2 0 1 2 0 0 2 0 0 19 21 21 43 55 38 25 16 4 0 0
0 0 0 0 0 0 1 0 0 1 0 0 0 1 3 3 1 0 0 1 0 4 21 30 9 39 38 4 8 3 2 0
0 0 0 0 0 0 0 0 0 0 0 1 2 1 1 1 1 0 0 0 5 1 8 4 0 6 0 0 2 0 0 0
0 0 0 0 0 0 0 0 1 0 0 1 1 1 0 1 1 0 0 0 0 0 0 0 0 5 9 27 16 4 0 0
0 0 0 0 0 0 0 0 0 0 3 0 1 1 0 0 0 0 0 0 0 0 1 0 3 15 20 26 29 13 2 0
0 0 0 0 0 0 0 0 0 0 1 1 0 0 0 0 0 0 0 0 0 0 0 17 21 14 63 39 28 18 10 18
0 0 0 0 0 0 0 0 0 0 0 0 0 0 0 0 0 0 0 0 0 0 0 3 45 27 16 64 33 46 38 42
5 0 0 0 0 0 0 0 0 1 0 0 0 0 0 0 0 0 0 0 0 0 0 4 12 17 22 37 48 46 27 28
24 5 0 0 0 0 0 0 0 1 0 0 0 0 0 0 0 0 0 0 0 0 0 0 8 6 16 24 25 29 34 25
11 13 0 0 0 0 0 0 0 0 0 2 0 0 0 0 0 0 0 0 0 0 0 0 0 1 10 24 18 7 7 11
0 56 1 0 0 0 0 0 0 0 0 0 1 1 0 0 0 0 0 0 0 0 0 0 0 0 1 2 4 2 0 0
0 33 50 0 0 0 0 0 0 0 0 0 0 2 3 1 0 0 0 0 0 0 0 0 0 0 0 0 0 0 0 0
0 2 14 42 3 8 0 0 0 0 0 0 0 0 2 3 5 3 0 0 0 0 0 0 0 0 0 0 0 0 0 0
0 0 0 0 0 0 9 13 0 0 0 0 0 0 0 0 1 3 5 1 0 0 0 0 0 0 0 0 0 0 0 0
0 0 0 0 0 0 0 0 0 0 0 0 0 0 0 0 0 0 6 3 1 1 0 0 0 0 0 2 0 1 0 0
0 0 0 0 0 0 0 0 0 0 4 0 0 0 0 0 0 0 0 0 2 2 1 0 0 0 0 0 0 0 0 0
0 0 0 0 0 0 0 0 0 0 0 0 0 0 2 3 0 0 0 1 13 10 16 30 17 1 0 0 0 0 0 0
0 0 0 0 0 0 0 0 0 0 0 0 0 0 0 0 18 46 77 70 57 59 60 40 45 44 15 3 0 0 1 0

GFSFLT1_con_mlcape_072.txt.gz
CAPE
21 49 16 0 0 0 0 0 0 0 0 3 1 0 1 0 12 22 38 7 0 0 0 0 0 0 0 0 0 0 0 0
20 37 12 0 0 0 0 0 0 0 1 1 4 1 1 1 0 3 0 9 0 0 0 0 0 0 0 0 0 0 0 0
18 46 18 12 0 0 0 0 0 0 0 1 1 1 1 1 1 1 0 0 0 0 0 2 8 0 0 0 0 0 0 0
9 49 33 15 0 0 0 0 0 0 0 0 0 1 1 1 1 1 1 0 3 13 0 16 40 30 5 3 0 0 1 0
5 39 21 1 0 0 0 0 0 0 1 0 0 1 1 0 1 0 0 0 0 1 21 7 22 55 35 18 0 0 3 0
1 33 33 0 0 0 0 0 0 0 1 0 0 1 0 1 1 0 0 0 0 0 8 16 10 37 30 12 20 1 0 0
6 11 14 2 0 0 0 0 0 0 0 0 0 0 0 2 0 1 1 0 0 1 4 9 0 7 20 7 0 3 1 5
0 0 9 12 0 0 0 0 0 0 0 1 0 0 0 0 0 0 1 0 0 0 0 0 0 3 3 1 2 5 11 15
0 0 5 9 0 0 0 0 0 0 0 0 0 0 0 0 0 0 0 0 0 0 0 0 0 0 1 26 12 8 36 33
0 2 5 0 0 0 0 0 0 0 0 0 0 0 0 0 0 0 0 0 0 0 0 2 0 6 11 10 38 61 35 35
0 0 4 0 0 0 0 0 0 0 0 1 0 0 0 0 0 0 0 0 0 0 0 0 0 0 8 24 16 20 28 31
9 11 0 0 0 0 0 0 0 0 1 0 0 0 0 1 0 0 0 0 0 0 0 0 0 0 0 1 7 5 5 11
1 0 0 0 0 0 0 0 0 0 0 0 0 0 0 0 1 0 0 0 0 0 0 0 0 0 0 0 1 2 3 1
0 0 0 0 0 0 0 0 0 0 0 0 0 0 0 0 0 1 1 0 0 0 0 0 0 0 0 0 0 0 0 0
0 0 0 0 0 0 0 0 0 0 0 0 0 0 0 0 0 0 0 1 2 0 0 0 0 0 0 0 0 0 0 0
0 0 0 0 0 0 0 0 0 0 0 0 0 0 0 0 0 0 0 0 1 0 0 0 0 0 0 0 0 0 0 0
0 0 0 0 0 0 0 0 0 0 0 0 0 0 0 0 0 0 0 0 0 0 0 1 0 0 0 0 0 0 0 0
0 0 0 0 0 0 0 0 0 0 0 0 0 0 0 0 0 0 0 0 0 0 0 0 0 0 0 0 0 0 0 2
0 0 0 0 0 0 0 0 0 0 1 0 0 0 0 0 0 0 1 0 0 0 1 1 1 1 0 0 0 0 0 0

GFSFLT1_con_mlcape_075.txt.gz
CAPE
48 65 72 54 13 14 0 0 0 1 0 0 1 2 3 10 4 2 3 2 0 0 0 0 0 0 0 0 0 0 0 0
2 38 47 41 0 11 0 0 0 0 0 1 0 1 1 7 4 4 1 1 0 3 0 0 0 0 0 0 0 0 0 0
0 31 50 29 9 0 0 0 0 0 0 0 0 1 2 0 3 10 28 18 1 0 0 0 0 0 0 0 0 0 0 0
0 38 57 34 1 0 0 0 0 0 0 0 0 0 2 1 8 15 2 4 0 0 0 0 0 0 0 0 0 0 0 0
1 38 54 52 5 0 0 0 0 0 0 0 0 0 0 1 2 1 3 9 1 0 0 3 2 0 0 2 3 3 1 3
0 60 77 49 0 0 0 0 0 0 0 0 0 0 0 0 2 0 1 1 0 0 0 0 5 1 9 26 17 6 14 14
0 46 45 56 19 0 0 0 0 0 0 0 0 0 0 0 0 1 1 0 1 0 0 0 2 7 15 20 34 36 8 0
0 6 38 61 43 3 0 0 0 0 0 0 0 0 0 0 0 3 0 1 0 0 0 0 0 0 17 13 30 33 10 1
0 0 27 62 56 12 0 0 0 0 0 0 0 0 0 0 0 0 0 0 0 0 0 0 0 0 3 12 23 31 7 5
0 0 18 39 43 11 0 0 0 0 0 0 0 0 0 0 0 0 0 0 0 0 0 0 0 0 0 0 1 0 0 0
0 0 11 33 7 0 0 0 0 1 0 1 0 0 0 0 0 0 0 0 1 0 0 0 0 0 0 0 0 1 2 3
0 0 0 4 0 1 0 0 1 0 0 1 1 0 0 0 0 0 0 0 0 0 0 0 0 0 0 0 0 0 1 6
0 0 0 0 0 1 1 2 1 0 1 0 1 0 0 0 0 0 0 0 0 0 0 0 0 0 0 0 0 1 3 3
0 0 0 0 0 0 0 0 0 0 1 1 2 0 0 0 0 0 0 0 0 0 0 0 0 0 0 0 0 0 0 3
1 1 3 3 2 2 1 0 0 0 0 0 0 1 0 0 0 0 0 0 0 0 0 0 0 0 0 0 0 0 0 1
0 1 1 1 2 1 0 0 0 0 0 0 0 0 0 0 0 0 0 0 0 0 1 0 0 0 0 0 0 0 0 0
0 0 0 0 0 0 0 0 0 0 0 0 0 0 0 0 0 0 0 0 0 0 0 0 0 0 0 0 0 0 0 0
0 0 0 0 0 0 0 0 0 0 0 0 0 0 0 0 0 0 0 1 0 1 0 0 0 0 0 0 0 0 0 0
0 0 0 0 0 0 0 0 0 0 0 0 1 1 2 1 1 3 1 2 2 2 1 1 1 1 0 0 0 0 0 0

GFSFLT1_con_mlcape_078.txt.gz
CAPE
1 219 252 148 121 152 34 2 0 0 0 3 0 1 2 3 7 1 2 2 20 15 1 1 0 0 0 0 0 0 0 0
0 63 170 115 147 64 25 0 0 0 0 0 3 0 2 4 9 11 1 3 19 5 1 0 0 0 0 0 0 0 0 0
0 15 133 146 143 31 18 0 0 0 2 0 0 1 0 5 2 2 2 1 1 2 0 0 0 0 0 0 0 0 0 0
0 0 67 94 71 32 12 0 0 0 0 0 0 0 1 1 2 5 1 1 0 0 0 0 0 0 0 0 0 0 0 0
0 0 28 80 29 25 0 0 0 1 0 0 0 0 0 0 2 1 2 1 0 0 0 0 0 0 0 0 0 0 0 0
0 0 11 55 3 17 0 0 0 0 0 0 0 0 0 0 1 3 1 3 0 0 0 0 0 0 0 3 1 0 0 4
0 5 43 41 6 4 0 0 0 1 3 0 0 0 0 0 0 3 0 1 2 0 0 0 0 0 0 7 5 13 13 3
0 0 21 10 16 16 1 0 0 0 1 0 0 0 0 0 0 0 1 1 0 2 2 3 0 0 0 0 22 22 29 45
0 0 0 8 10 14 1 0 0 0 0 1 0 0 0 0 0 0 2 2 1 0 2 2 2 0 0 1 0 20 24 6
0 0 1 9 19 16 2 1 0 0 1 2 1 0 0 0 0 0 1 2 0 0 0 0 0 0 0 0 16 12 4 11
0 0 2 13 17 3 3 2 0 0 1 1 1 1 0 0 0 0 0 0 0 0 0 0 0 0 0 1 0 1 16 5
0 0 2 13 3 1 1 2 1 0 1 0 0 0 1 0 0 0 0 0 0 0 0 0 0 0 1 2 1 0 0 2
0 0 0 1 1 0 1 2 0 0 1 0 1 0 1 0 0 0 0 0 0 0 0 0 0 0 0 0 0 0 0 0
3 2 1 1 4 2 0 1 2 1 2 1 1 0 1 0 0 0 0 0 0 0 0 0 0 0 0 0 0 0 0 0
3 3 4 2 1 1 0 0 1 1 2 1 1 2 1 0 0 0 0 0 0 0 0 0 0 0 0 0 0 0 0 0
4 4 5 4 4 3 2 2 0 0 1 1 0 0 0 0 0 0 0 0 0 0 0 0 0 0 0 0 0 0 0 0
6 5 4 3 3 2 0 0 1 0 0 0 1 0 0 0 0 0 1 0 0 0 0 0 0 0 0 0 0 0 0 0
3 4 4 4 2 0 1 2 0 0 0 0 1 0 1 1 1 0 0 1 0 1 0 0 0 0 1 0 0 0 0 0
2 2 1 2 1 0 0 0 0 0 0 1 1 1 1 1 3 2 2 7 3 2 3 4 2 7 1 1 1 0 1 0

GFSFLT1_con_mlcape_081.txt.gz
CAPE
0 0 188 446 484 470 374 259 90 0 1 1 1 2 2 2 2 0 2 3 3 56 37 6 2 2 0 0 0 0 7 3
0 0 12 272 373 331 221 180 6 0 0 0 1 0 1 2 3 4 2 2 11 7 2 1 1 1 0 0 0 0 0 2
0 0 0 80 309 255 159 106 0 1 1 1 1 1 3 3 4 1 10 1 4 9 0 2 3 2 0 0 0 0 0 0
0 0 0 82 243 226 156 32 0 1 1 3 1 3 3 4 2 3 1 1 3 2 2 2 1 1 0 0 0 0 0 0
0 0 0 14 221 204 48 8 1 2 3 2 0 0 1 6 2 3 2 2 1 2 2 0 0 0 0 0 0 0 0 0
0 0 0 56 216 133 7 0 2 3 1 0 0 2 4 3 3 1 1 2 2 2 2 0 0 0 0 0 0 0 0 0
0 0 2 46 117 10 1 0 1 1 1 1 0 8 3 0 6 1 0 2 1 1 0 0 0 0 0 0 0 0 0 3
0 0 0 20 26 0 0 0 0 3 0 0 1 2 2 0 0 1 0 0 2 0 0 0 0 0 0 0 0 0 1 9
0 0 25 68 33 7 7 6 1 2 1 0 1 1 1 1 2 2 3 2 3 1 0 0 0 0 0 0 0 4 13 6
0 0 23 49 25 17 29 1 2 3 3 0 2 2 0 0 1 1 5 7 3 0 2 2 1 0 0 0 0 0 0 3
0 0 1 42 26 5 1 1 1 3 2 0 0 2 1 0 0 0 0 5 17 6 1 1 2 0 0 0 0 0 0 0
3 6 19 26 8 2 2 1 0 1 2 0 0 0 0 0 0 0 0 0 1 1 0 2 2 1 0 3 0 2 0 0
1 5 4 4 4 2 1 1 1 2 1 1 0 0 0 0 1 0 0 0 0 0 0 5 5 2 3 2 1 4 0 0
4 1 1 3 2 1 1 3 1 1 1 1 1 1 1 0 2 0 0 0 0 1 1 1 1 2 1 2 2 1 2 2
5 5 3 2 2 1 1 0 1 1 0 0 0 0 1 0 2 3 0 0 0 0 0 0 0 3 2 2 0 0 0 0
7 6 5 4 3 3 3 2 1 0 0 0 0 0 0 0 1 2 2 1 0 0 0 0 0 0 0 0 0 0 0 0
7 5 4 3 2 3 3 3 2 1 2 1 0 0 0 1 0 0 0 0 0 1 1 0 0 0 1 0 0 2 0 0
6 6 5 2 2 2 7 5 1 0 0 1 3 2 2 1 1 1 4 2 2 2 3 3 6 4 1 0 0 0 0 1
7 6 4 1 0 0 1 2 5 3 3 2 1 4 4 4 5 6 5 6 7 7 9 8 6 5 3 0 0 0 1 2

GFSFLT1_con_mlcape_084.txt.gz
CAPE
0 0 0 297 816 1214 1375 1151 1241 965 273 197 212 101 36 2 3 3 2 3 8 23 71 95 33 8 5 21 58 71 85 42
0 0 0 399 818 1278 1342 1093 1078 557 236 138 89 43 14 3 4 4 4 3 2 17 68 55 12 2 1 6 66 62 46 49
0 0 0 412 765 1164 1229 963 802 447 221 91 45 5 3 12 10 40 48 25 45 18 36 23 5 2 1 0 50 39 49 27
0 0 0 375 615 1061 938 781 780 294 194 75 59 23 7 3 16 63 56 33 8 10 23 2 2 2 1 0 9 28 42 41
0 0 0 221 524 932 677 722 669 193 102 66 9 0 3 15 7 5 7 3 4 2 6 2 1 2 2 1 3 30 22 22
0 0 0 139 460 902 599 492 469 132 79 76 2 7 9 29 5 3 2 1 1 1 1 1 1 2 2 0 4 31 7 6
0 0 0 80 417 844 429 198 141 75 104 77 6 15 9 11 3 2 2 2 3 2 0 2 2 2 2 2 4 36 4 30
141 26 50 199 584 595 47 70 68 44 164 25 7 10 10 4 2 1 1 1 1 2 2 1 2 2 1 0 0 1 0 15
275 64 215 296 577 68 10 34 34 17 79 4 1 3 12 6 7 6 2 2 0 0 0 2 2 2 2 0 0 0 5 19
352 81 343 333 448 7 11 30 19 3 3 1 1 5 5 1 0 7 14 26 16 2 0 0 0 0 0 0 0 0 0 30
53 146 320 429 260 14 74 264 13 3 0 1 2 4 4 3 3 10 12 12 7 4 3 2 0 0 0 0 0 0 0 0
3 222 245 257 70 119 97 58 1 1 3 2 0 1 3 4 4 2 9 11 4 7 0 2 2 1 0 0 0 0 0 0
5 2 71 53 8 4 8 8 2 5 3 1 2 8 5 5 2 2 17 18 18 18 4 1 2 2 1 0 0 0 0 0
5 7 1 1 4 4 5 3 5 4 3 3 4 7 3 2 1 20 11 6 12 14 12 13 6 2 3 1 0 0 0 0
5 7 4 4 1 2 0 2 2 4 4 5 4 2 2 1 0 16 0 0 0 14 6 2 1 12 9 2 2 1 0 0
3 7 6 5 4 3 3 4 1 1 1 0 0 0 0 1 3 11 21 20 15 14 14 5 3 5 0 0 12 4 5 3
3 3 4 3 6 6 4 4 4 1 1 3 2 3 1 1 2 2 1 1 0 0 0 0 2 0 6 2 0 0 12 11
5 5 5 4 3 3 5 5 3 2 1 3 3 3 4 4 3 2 5 7 6 6 7 6 8 4 1 0 0 0 2 0
1 3 2 3 1 2 2 2 3 3 4 4 4 4 6 4 4 7 6 7 10 10 9 6 4 5 1 0 1 4 4 7

GFSFLT1_con_mlcape_087.txt.gz
CAPE
0 0 0 0 0 216 1143 2092 1720 1801 1741 1319 913 640 544 409 384 312 433 251 129 59 11 27 86 100 116 86 44 39 78 61
0 0 0 0 6 656 1337 1995 1653 1819 1461 821 607 399 407 270 185 154 217 224 95 3 9 25 39 67 81 94 55 21 40 57
0 0 0 0 207 950 1449 1852 1673 1683 1005 933 650 442 290 341 298 134 60 8 2 4 15 53 29 27 43 65 42 26 41 76
0 0 0 0 242 905 1401 1733 1693 1577 1098 931 582 322 210 171 72 52 344 174 137 39 47 32 8 23 10 8 11 13 31 37
0 0 0 0 252 770 1248 1572 1538 1455 1146 817 496 252 100 86 63 103 240 156 109 97 79 51 62 8 1 5 6 22 26 45
0 0 0 0 58 616 1257 1400 1324 1351 1030 736 462 242 81 51 54 50 58 8 2 7 6 16 11 16 1 7 0 25 25 70
8 7 3 1 19 642 1418 1251 1308 973 985 696 488 239 67 31 76 74 3 4 2 0 1 4 3 2 2 2 1 0 36 41
179 103 23 1 126 859 1421 1200 1252 835 859 733 430 167 52 22 88 29 2 1 1 0 0 0 1 1 2 2 3 12 43 29
2 343 189 160 203 913 1117 755 741 544 758 712 354 85 18 22 82 6 3 2 3 1 2 0 1 1 2 2 3 29 43 43
0 17 321 510 680 850 492 375 394 432 899 583 176 68 10 23 58 19 4 2 1 1 2 1 0 1 1 1 1 1 2 30
0 0 140 678 796 323 180 240 295 379 726 344 46 22 2 18 33 22 15 22 3 5 2 3 3 1 2 2 0 0 1 4
0 0 0 503 396 184 73 202 172 227 379 49 21 2 1 10 3 5 8 15 17 32 6 1 0 0 0 0 0 0 0 0
0 3 1 68 294 209 202 205 98 71 52 2 11 1 2 1 1 4 5 9 18 3 26 3 2 1 1 0 0 0 0 0
0 1 3 5 2 36 7 6 15 7 2 1 9 5 2 1 1 0 9 6 12 27 9 3 2 2 1 0 0 0 0 0
0 1 1 2 6 4 1 2 5 5 3 3 1 2 2 3 0 6 7 5 8 1 6 11 2 1 1 1 0 0 0 0
2 1 4 2 4 3 6 2 2 1 0 0 1 0 1 3 1 1 1 2 1 4 8 4 1 0 0 0 0 2 1 0
5 2 3 5 5 5 4 7 3 3 1 1 3 2 1 3 1 2 2 1 2 2 1 2 4 2 5 2 0 0 0 0
7 6 4 4 4 4 6 3 3 4 4 3 3 3 3 3 4 4 5 8 4 10 9 7 5 3 0 0 1 0 1 5
2 4 2 2 1 4 3 2 1 3 4 4 4 3 4 5 4 8 8 6 7 7 7 6 4 3 3 2 2 4 7 8

GFSFLT1_con_mlcape_090.txt.gz
CAPE
0 0 0 0 0 0 2148 2174 2157 2169 2039 1986 1747 1257 857 915 856 829 740 771 642 429 316 253 222 114 49 43 28 35 23 49
0 0 0 0 0 0 2275 2111 2046 1999 1922 1724 1382 1018 730 647 452 475 409 612 479 355 259 236 136 84 51 51 31 13 19 64
0 0 0 0 0 2 2177 2105 1991 1914 1956 1470 1134 888 631 445 199 181 238 473 289 210 148 70 29 40 73 41 11 1 34 14
0 0 0 0 0 208 1938 2150 1896 1867 1887 1196 993 705 652 520 320 204 122 122 174 144 93 59 31 33 42 56 11 0 3 32
0 0 0 0 2 396 1568 2172 1777 1880 1498 1259 967 684 495 380 267 190 250 278 110 63 48 75 59 70 46 35 27 10 2 21
0 0 0 0 13 502 1084 1977 1799 1718 1363 1373 993 703 460 259 290 241 310 302 177 127 125 101 58 23 24 48 29 14 1 7
65 103 17 0 47 532 1134 1764 1727 1761 1349 1401 952 712 397 267 184 98 105 21 0 0 0 17 47 41 20 22 28 25 2 3
0 29 170 86 25 692 1277 1686 1686 1672 1388 1258 923 711 398 241 200 120 35 0 2 0 0 3 2 11 2 11 25 17 5 2
0 0 6 5 334 1169 1541 1638 1495 1519 1322 1160 945 635 275 199 222 72 17 0 0 0 1 0 0 0 1 1 11 5 1 0
0 0 0 2 643 1439 1637 1333 1364 1227 1137 1058 843 503 196 131 178 51 19 0 0 1 1 1 1 1 2 2 1 1 2 0
0 0 0 259 992 880 877 966 965 890 1128 1156 611 288 122 111 119 10 31 17 2 3 1 2 1 0 0 1 0 10 3 5
2 0 0 0 115 480 588 493 615 665 850 779 308 217 80 35 87 93 61 34 6 1 0 1 2 1 1 0 1 1 0 0
1 1 1 2 0 2 250 384 470 487 491 258 139 47 28 28 43 36 41 44 19 6 1 2 1 2 1 0 0 0 0 0
2 2 3 4 4 1 4 252 250 213 61 20 10 11 25 7 14 3 6 7 6 4 13 0 1 0 0 0 0 0 0 0
2 2 3 3 4 4 6 3 9 20 0 1 11 3 3 1 3 11 6 7 11 15 10 4 1 1 1 1 0 0 0 0
4 6 5 3 3 3 2 6 5 2 0 0 0 0 0 0 0 0 0 0 0 0 0 0 0 0 0 0 0 0 0 0
6 6 5 3 4 5 2 4 6 2 3 2 2 1 1 2 2 2 1 1 2 1 1 2 5 4 2 1 0 0 0 0
4 6 4 3 3 4 2 4 3 4 6 5 4 4 3 4 6 4 9 9 4 9 9 4 7 8 1 0 0 2 4 6
2 2 2 3 3 2 2 1 1 3 4 3 4 3 7 7 6 8 7 8 8 7 7 6 6 6 5 4 4 5 6 8

GFSFLT1_con_mlcape_093.txt.gz
CAPE
0 0 0 0 0 0 217 1912 2042 1947 1786 1534 1385 1072 880 1020 942 791 935 833 860 658 479 378 307 178 63 4 0 0 0 36
0 0 0 0 0 0 64 1679 1902 1909 1708 1563 1334 1234 967 803 809 722 604 649 706 544 395 277 252 147 58 3 3 2 7 26
0 0 0 0 0 0 389 1688 2008 1976 1694 1601 1346 1060 663 550 699 573 586 640 580 458 337 274 193 87 67 22 17 11 10 19
0 0 0 0 0 0 834 1845 2072 1876 1674 1153 834 627 463 392 386 369 325 364 424 317 288 255 229 161 66 35 20 5 8 15
0 0 0 0 0 47 1171 1860 1923 1699 1522 1378 1135 893 646 384 280 221 211 236 233 215 184 112 106 87 73 62 32 2 3 7
30 41 20 0 0 919 1745 1821 1793 1656 1378 1169 997 783 429 355 304 236 169 128 146 156 147 112 107 61 60 113 58 1 0 1
35 31 26 25 3 1525 1920 1727 1726 1631 1269 1103 922 701 431 351 297 207 188 217 178 135 129 69 30 9 38 89 86 18 1 0
0 0 2 0 1 33 1614 1721 1686 1601 1397 1158 943 749 488 302 228 244 198 106 52 5 0 6 10 21 19 26 53 48 5 0
0 0 0 0 73 111 1093 1364 1574 1322 1367 1219 949 699 464 292 270 149 61 6 1 0 0 1 2 0 16 9 33 30 19 1
0 0 0 0 0 648 1137 1270 1282 1116 1106 1033 935 723 498 363 258 152 35 0 0 0 0 1 1 2 4 3 16 8 26 3
0 0 0 0 2 3 503 582 657 935 955 936 835 645 341 305 231 112 30 2 0 0 0 0 2 2 0 1 20 7 14 3
0 0 2 1 3 0 0 204 61 373 640 906 722 386 335 252 182 98 31 4 0 0 1 2 1 1 0 0 1 1 1 1
1 0 1 0 4 1 1 0 330 308 541 613 455 220 147 170 104 96 86 49 3 0 1 0 1 0 0 0 0 1 1 8
0 0 0 3 3 4 6 2 0 272 360 288 149 57 46 45 105 149 121 93 10 4 1 0 0 0 0 0 0 0 0 0
3 3 4 3 3 3 4 6 3 17 35 21 20 13 3 5 20 31 17 8 9 10 5 1 1 1 0 0 0 0 0 0
7 6 5 4 3 2 3 6 6 4 1 0 0 0 0 0 0 0 0 0 0 0 0 0 0 0 0 0 0 0 0 0
6 5 5 4 4 4 2 5 7 5 6 4 4 0 0 2 3 4 3 3 5 2 4 4 3 3 2 0 0 0 0 0
5 3 3 3 3 4 2 4 3 5 6 6 6 7 8 6 4 9 7 8 8 9 9 7 7 7 2 1 0 3 2 3
3 2 2 1 1 2 2 2 2 1 3 4 4 5 7 7 5 9 12 8 11 12 9 6 8 10 7 9 7 6 8 7

GFSFLT1_con_mlcape_096.txt.gz
CAPE
0 0 0 0 0 0 0 601 1360 2057 1686 1315 1354 1495 1484 1329 1243 1257 1136 1007 992 856 685 577 441 271 154 106 75 4 3 0
0 0 0 0 0 0 0 453 1339 1849 1683 1324 1083 1338 1191 1027 845 712 859 891 764 730 661 498 386 309 164 55 18 0 0 3
0 0 0 0 0 0 0 266 1121 1617 1707 1594 1200 1089 932 754 642 741 579 656 466 648 542 438 364 318 159 65 29 2 8 5
0 0 0 0 0 0 0 159 789 1533 1818 1507 1025 483 492 651 682 582 441 381 346 432 423 356 273 216 135 79 21 12 14 7
27 1 0 0 0 0 0 392 945 1572 1710 1426 941 1048 973 697 469 313 308 339 388 368 344 287 230 148 97 60 35 20 20 20
11 18 19 18 4 4 57 782 1327 1672 1444 1362 1153 1061 695 301 198 252 191 213 245 238 291 212 168 102 68 56 25 7 23 20
0 0 0 1 1 165 1138 1247 1579 1508 1302 1134 1206 843 515 394 266 195 113 91 89 168 141 144 112 73 60 86 45 9 8 20
0 0 0 0 0 6 696 1669 1606 1453 1282 961 909 648 474 490 274 156 101 77 55 134 124 129 100 81 52 35 76 35 13 5
0 0 0 0 0 0 294 1502 1444 1157 1014 769 577 455 446 367 239 154 142 109 57 53 105 105 68 25 6 19 38 61 11 3
0 0 0 1 4 4 0 1213 1043 1009 871 684 593 477 287 235 163 158 106 46 21 20 20 0 0 0 0 2 35 31 20 4
0 0 1 3 7 5 4 152 559 521 487 476 472 401 288 209 151 144 140 79 0 0 0 0 1 2 2 4 12 3 5 15
2 2 1 1 3 5 5 1 40 64 37 259 308 228 236 188 162 142 101 12 0 0 0 0 1 0 2 4 1 1 31 1
2 1 4 2 2 3 3 5 0 0 0 149 142 157 185 186 141 97 29 4 0 0 0 0 1 2 2 1 0 0 5 5
1 2 2 6 4 3 2 6 5 0 10 59 71 101 180 163 107 30 30 12 1 0 0 0 0 1 2 0 0 0 0 0
5 4 5 5 5 4 3 2 8 3 6 32 37 37 29 14 11 9 23 42 45 3 1 1 0 1 1 0 0 0 0 0
5 5 5 4 4 4 4 2 4 6 5 1 2 0 0 0 0 0 0 0 0 0 0 0 0 0 0 0 0 0 0 1
4 5 2 4 4 3 4 5 6 7 7 8 5 5 4 3 0 0 3 4 3 2 2 2 2 4 1 0 0 0 0 0
5 4 3 3 3 4 5 5 4 2 6 7 7 8 10 11 11 7 6 7 8 9 8 6 12 9 6 2 0 0 0 2
4 3 3 2 1 3 2 3 4 2 1 3 4 6 6 5 6 11 10 10 11 11 12 10 12 10 10 11 7 6 6 6

GFSFLT1_con_mlcape_099.txt.gz
CAPE
0 0 0 0 0 0 0 318 1391 2133 2221 1771 1492 1272 1275 1103 1043 950 876 908 818 734 573 489 433 459 326 275 202 78 42 24
0 0 0 0 0 0 0 55 794 1761 1913 1800 1602 1504 1416 1235 1300 1162 1138 1054 869 731 566 513 486 456 277 250 135 77 12 2
0 0 0 0 0 0 0 0 685 1351 1676 1647 1616 1467 1288 1138 1069 1093 1176 1029 902 737 559 502 406 323 149 123 75 26 4 1
0 0 0 0 0 0 0 0 406 1115 1581 1623 1217 858 639 827 889 925 1022 898 836 748 416 407 374 304 184 61 75 36 14 1
0 0 0 0 0 0 0 0 461 1123 1703 1497 1184 1063 1019 904 883 826 544 532 543 400 341 260 320 240 149 92 33 12 1 2
0 0 0 0 0 0 1 8 456 948 1597 1550 1221 1216 973 685 646 455 565 383 366 182 190 224 211 178 128 66 21 4 1 0
0 0 0 0 0 0 2 248 638 1359 1627 1582 1291 1105 831 563 449 482 339 253 248 225 203 213 230 136 76 63 40 3 1 2
0 0 0 0 0 0 3 225 1373 1599 1630 1578 1200 979 677 595 467 452 205 143 161 163 90 115 127 69 29 52 31 0 1 4
2 0 0 0 0 4 1 115 1734 1706 1511 1322 953 564 606 461 387 288 203 128 93 48 58 97 35 30 44 31 49 21 4 11
1 1 0 0 4 4 8 4 1363 1501 1286 818 596 416 405 355 250 213 142 79 58 48 29 17 22 63 33 53 41 21 19 10
2 2 1 1 4 6 6 7 5 726 795 605 373 246 213 203 230 210 91 48 44 11 11 0 2 0 0 0 0 2 15 15
2 2 2 2 3 6 7 8 2 0 114 258 265 115 49 118 131 71 39 30 38 30 7 0 0 0 0 0 2 2 6 6
1 2 3 3 4 6 7 8 6 3 0 33 30 5 4 83 67 67 40 68 35 1 0 0 0 0 0 0 1 0 1 1
2 3 3 5 5 6 6 10 7 5 0 0 4 0 1 64 47 54 52 17 3 0 0 0 0 0 1 0 0 0 0 0
4 3 3 5 4 5 6 8 6 5 3 7 13 23 51 24 52 56 33 4 1 0 0 0 0 1 1 0 0 0 0 0
6 5 4 4 5 4 5 5 7 1 8 4 2 1 0 2 1 0 0 0 0 0 0 0 0 0 0 0 0 0 0 0
4 3 4 4 4 4 4 5 4 2 2 7 7 6 3 4 5 4 3 1 2 1 1 1 1 4 3 0 0 0 0 0
4 3 3 3 3 3 4 3 3 2 0 2 3 4 9 12 10 8 9 8 8 6 8 7 11 8 5 1 0 1 1 4
3 2 2 2 2 2 3 4 2 3 2 1 1 0 2 6 8 12 11 11 11 13 12 12 13 14 9 5 4 5 5 5

GFSFLT1_con_mlcape_102.txt.gz
CAPE
0 0 0 0 0 0 0 0 81 1036 1776 1564 1167 938 735 656 625 659 644 799 803 788 755 575 348 292 227 195 210 146 93 14
0 0 0 0 0 0 0 0 0 775 1666 1695 1585 1461 1307 1105 838 659 561 664 678 712 599 467 335 337 246 272 188 205 118 17
0 0 0 0 0 0 0 0 0 551 1420 1778 1727 1544 1488 1341 1044 804 575 675 679 744 604 535 440 472 335 311 180 166 107 23
0 0 0 0 0 0 0 0 0 430 1160 1843 1480 1521 1338 1235 1141 1053 961 950 869 876 673 540 470 363 278 185 140 91 96 4
0 0 0 0 0 0 0 0 0 488 1283 1558 1415 1406 1060 941 1081 1202 1095 1031 971 949 748 626 540 271 246 159 117 60 20 20
0 0 0 0 0 0 0 0 0 0 1420 1369 1187 1137 1211 947 982 981 826 739 868 933 690 574 335 198 195 130 57 37 36 28
0 0 0 0 0 0 0 0 0 0 1502 1531 1300 931 1088 1028 940 956 740 715 835 646 515 351 190 173 124 74 56 9 4 0
0 0 0 0 0 3 0 4 0 0 1138 1557 1438 1298 1130 981 861 784 716 658 531 383 330 170 123 155 111 75 25 1 0 2
0 0 0 0 1 4 5 3 2 1 1124 1573 1552 1365 1007 841 733 543 466 442 413 287 253 121 130 97 86 58 35 0 1 3
0 0 0 1 2 5 6 6 2 4 1517 1324 1267 909 821 674 600 438 360 266 128 166 115 88 55 46 59 37 1 4 2 3
0 0 0 2 3 3 3 5 4 7 124 1123 898 665 476 402 341 326 234 152 98 118 70 53 43 42 22 13 22 26 36 24
0 0 0 2 3 3 4 6 7 8 3 151 437 359 283 263 250 171 140 78 58 53 16 20 6 9 5 4 1 0 0 0
0 2 2 3 5 5 5 6 8 8 5 0 193 219 160 121 81 43 19 23 6 0 2 9 1 1 0 0 0 0 0 0
1 2 3 3 5 5 5 6 7 7 7 0 25 78 37 52 23 27 13 1 2 10 16 4 0 0 0 0 0 0 0 2
2 3 3 3 4 4 5 5 4 5 6 5 1 1 0 11 21 20 7 14 21 0 0 1 0 0 0 0 0 0 0 0
2 3 3 3 3 4 4 4 4 4 2 4 11 7 2 1 3 1 2 4 0 0 0 0 0 0 0 0 0 0 0 0
2 2 2 3 4 4 4 4 3 3 7 6 3 5 9 11 8 4 2 1 1 1 1 1 1 0 2 0 0 0 0 1
2 1 3 3 2 2 3 3 3 3 4 6 2 0 1 5 7 12 9 9 8 9 9 7 7 8 5 1 0 0 2 5
1 1 0 2 2 2 3 3 2 4 3 5 3 5 0 0 0 6 7 9 12 12 12 11 11 8 6 8 5 6 6 7

GFSFLT1_con_mlcape_105.txt.gz
CAPE
0 0 0 0 0 0 0 0 0 16 723 1274 1322 1122 959 802 687 761 876 1041 1123 1214 1251 1008 712 540 524 448 401 304 240 243
0 0 0 0 0 0 0 0 0 0 467 821 964 948 1136 866 847 1024 1049 1009 1057 1170 1153 940 715 642 430 403 322 228 170 143
0 0 0 0 0 0 0 0 0 0 5 857 1056 1024 1164 1193 1035 944 956 861 887 1024 1039 796 601 514 370 355 285 246 166 97
0 0 0 0 0 0 0 0 0 0 0 794 1404 1228 1217 1163 1113 1098 1009 1025 878 930 901 649 493 435 421 448 319 304 172 73
0 0 0 0 0 0 0 0 1 0 0 322 1207 1051 1036 1245 1472 1348 1240 1070 892 874 787 613 520 571 566 427 364 284 161 109
0 0 0 0 0 0 0 1 1 0 1 0 1206 1336 1238 1442 1720 1630 1390 1106 966 817 741 705 731 656 519 381 234 195 148 97
0 0 0 0 0 0 0 1 2 2 1 3 531 1274 1379 1469 1527 1519 1309 1053 1031 891 743 732 641 661 511 371 166 170 119 84
0 0 0 0 0 0 0 2 3 4 4 5 141 1268 1344 1396 1423 1456 1173 945 1042 869 796 698 819 656 446 260 144 109 83 58
0 0 0 0 1 0 1 4 6 5 4 5 324 1107 1332 1344 1413 1357 1055 796 859 708 659 654 715 441 226 204 185 112 56 27
0 0 0 0 3 3 4 5 4 6 5 7 1010 1236 1233 1102 1257 1300 1016 756 658 452 479 427 415 222 168 168 111 117 64 5
0 0 0 0 2 3 3 3 4 5 5 8 742 1281 1119 915 838 1030 879 697 508 335 277 243 164 98 124 89 92 82 27 1
0 0 0 1 1 3 3 5 6 7 8 8 45 929 862 579 529 571 464 288 187 155 126 118 128 73 75 73 76 20 1 3
0 0 1 1 2 3 3 4 6 5 6 8 61 391 431 342 278 241 184 137 109 86 50 56 29 28 25 21 9 6 5 8
0 0 1 2 2 3 3 4 5 6 6 9 3 0 52 129 110 102 87 74 78 51 37 17 3 0 8 5 1 1 2 3
1 1 1 2 2 3 3 4 3 3 5 8 9 11 8 1 22 32 42 23 26 15 2 1 0 0 0 0 0 1 0 1
1 2 3 2 3 3 3 4 3 3 6 6 7 5 6 8 3 1 1 2 1 2 0 0 0 0 0 0 1 0 0 0
1 2 2 3 3 2 2 4 3 3 4 6 6 3 3 7 9 10 4 5 2 5 1 0 1 3 3 0 0 0 0 0
0 2 2 3 2 2 1 2 3 4 4 4 4 6 4 0 2 4 3 11 11 9 9 6 7 9 6 2 1 1 3 5
2 3 2 2 3 1 2 2 3 4 4 4 4 5 5 4 0 0 3 4 5 8 13 12 10 6 5 7 6 7 8 7

GFSFLT1_con_mlcape_108.txt.gz
CAPE
0 0 0 0 0 0 0 0 0 0 1 539 944 1454 1668 1897 1790 1610 1393 1381 1321 1390 1435 1468 1228 1297 1372 1400 1181 1157 1021 810
0 0 0 0 0 0 0 0 0 0 0 13 363 1042 1210 1200 1752 1766 1525 1471 1396 1342 1416 1399 1182 1199 1154 1166 1097 952 786 615
0 0 0 0 0 0 0 0 0 0 0 0 58 509 735 936 1298 1628 1615 1406 1319 1333 1414 1336 1196 1275 963 1017 740 566 593 547
0 0 0 0 0 0 0 0 0 0 0 0 0 345 744 842 977 1333 1410 1501 1305 1271 1303 1415 1268 1316 972 884 642 560 396 278
0 0 0 0 0 0 0 0 0 0 0 0 0 12 617 844 990 1025 1200 1429 1585 1391 1372 1507 1401 1210 968 870 667 809 513 320
0 0 0 0 0 0 0 0 0 0 0 0 2 0 477 982 1013 1134 1335 1256 1403 1587 1449 1475 1365 1047 937 836 725 846 770 625
0 0 0 0 0 0 0 0 0 0 0 0 3 3 15 1077 1113 1364 1364 1434 1242 1401 1392 1465 1315 1008 804 832 1126 970 610 665
0 0 0 0 0 0 0 0 0 0 1 1 1 3 7 391 1432 1538 1553 1622 1280 1237 1270 1254 1147 977 1138 1247 1133 873 724 535
0 0 0 0 0 0 0 1 3 2 3 4 4 5 3 382 1246 1382 1610 1639 1298 1223 1155 1268 1242 1237 1206 1131 1014 857 679 502
0 0 0 0 0 0 1 4 4 4 4 4 7 6 6 491 1305 1439 1422 1625 1397 1159 1122 1067 980 1026 866 906 892 607 445 365
0 0 0 0 0 0 1 3 4 4 5 5 6 7 8 973 1462 1416 1372 1565 1500 1161 1021 937 856 734 571 717 622 503 196 307
0 0 0 0 0 0 1 4 3 3 3 5 4 9 801 916 1148 1373 1251 1450 1249 1091 962 680 681 571 427 349 235 269 222 233
0 0 0 0 0 0 3 3 1 3 3 3 7 8 27 574 931 1068 1033 1104 963 754 703 543 413 395 321 219 190 175 167 151
0 0 0 0 0 0 3 3 3 3 3 4 7 12 9 0 204 324 447 497 449 412 390 371 294 251 202 145 120 84 99 76
0 0 0 0 1 2 2 3 2 2 3 4 7 11 14 11 3 3 98 132 158 152 153 136 99 72 45 18 7 1 10 1
0 0 0 0 1 2 2 2 2 2 4 3 5 6 7 4 10 8 2 1 6 6 12 11 3 2 1 3 3 2 1 0
1 0 0 1 1 2 1 2 2 2 3 3 1 4 4 4 7 8 13 10 11 4 6 5 1 3 1 0 4 1 0 0
3 3 3 3 3 3 2 2 1 2 4 3 3 2 2 4 1 4 4 3 5 9 6 11 12 11 2 1 0 2 2 5
2 3 3 3 3 2 1 2 2 2 1 2 3 3 3 3 5 1 0 1 4 2 2 2 5 7 9 7 6 8 10 6

GFSFLT1_con_mlcape_111.txt.gz
CAPE
0 0 0 0 0 0 0 0 0 0 0 0 196 739 1221 1742 1929 2023 2064 2017 2236 2207 2159 2088 1967 1871 1924 1873 1872 1763 1675 1258
0 0 0 0 0 0 0 0 0 0 0 0 0 246 582 1133 1611 1964 2391 2201 2094 2155 2065 1827 1844 1663 1729 1762 1735 1409 1467 1456
2 0 0 0 0 0 0 0 0 0 0 0 0 0 42 372 1095 1342 1949 2404 2205 2108 2085 1816 1888 1554 1584 1494 1441 1297 1285 1376
0 0 0 0 0 0 0 0 0 0 0 0 0 0 0 122 718 796 1371 2109 2328 2200 1816 1938 1917 1568 1355 1467 1299 1185 1139 1103
0 0 0 0 0 0 0 0 0 0 0 0 0 0 0 0 399 690 1040 1563 2049 2184 2096 1774 2022 1703 1510 1416 1266 1254 1107 607
0 0 0 0 0 0 0 0 0 0 0 0 0 0 0 0 7 806 1085 1316 1754 1701 1714 1903 1931 1790 1730 1527 1222 1261 1041 805
0 0 0 0 0 0 0 0 0 0 0 0 1 1 1 1 0 195 1492 1384 1635 1626 1566 1528 1770 1943 1631 1697 1481 1136 1066 969
0 0 0 0 0 0 0 0 0 0 0 0 0 0 2 3 2 0 577 1375 1466 1673 1332 1647 1585 1756 1709 1718 1555 1092 1081 1170
0 0 0 0 0 0 0 0 0 0 0 0 0 1 3 3 1 0 268 1259 1424 1795 1462 1555 1628 1723 1779 1708 1376 1078 951 1121
0 0 0 0 0 0 0 1 0 0 1 1 3 4 3 4 3 1 21 870 1404 2038 1571 1406 1492 1583 1629 1623 1412 1424 1208 424
0 0 0 0 0 0 0 1 1 1 1 2 3 4 3 3 4 4 1 1039 1379 1829 1821 1485 1413 1477 1470 1512 1519 1575 1308 1047
0 0 0 0 0 0 0 0 1 2 4 4 4 2 3 4 6 4 270 1213 1232 1367 1586 1415 1308 1333 1294 1288 1265 1263 1004 779
0 0 0 0 0 0 0 1 2 4 4 2 3 2 4 7 6 257 578 742 1080 1217 1461 1285 1164 1171 1063 1055 1167 1051 768 590
0 0 0 0 1 0 0 1 3 3 1 3 3 3 7 9 7 0 1 482 746 815 1193 1304 1111 895 842 1033 1154 827 444 377
0 0 0 0 1 1 0 0 2 2 2 3 4 1 5 9 10 13 4 1 284 628 855 814 766 690 645 733 675 539 141 136
0 0 0 2 1 1 1 1 1 1 2 3 3 3 2 3 8 9 10 9 8 4 57 134 332 428 437 473 383 309 78 10
0 1 2 3 3 2 2 2 1 0 1 2 2 3 3 1 4 6 8 10 13 12 11 7 4 1 0 41 57 4 0 0
2 3 3 2 2 2 2 1 1 0 0 1 2 2 4 3 5 1 2 6 6 8 5 7 13 12 5 0 0 1 2 3
2 2 2 1 1 1 1 1 1 1 1 0 0 0 1 2 3 4 5 4 3 3 5 4 0 1 6 9 11 10 10 10

GFSFLT1_con_mlcape_117.txt.gz
CAPE
0 0 0 0 0 0 0 0 0 0 0 0 0 0 0 0 43 942 1216 1425 1481 1829 1925 1828 1722 1693 1783 1780 1691 1414 1229 1210
0 0 0 0 0 0 0 0 0 0 0 0 0 0 0 0 0 0 29 1028 1329 1476 1735 1680 1660 1604 1446 1690 1695 1522 1343 1223
0 0 0 0 0 0 0 0 0 0 0 0 0 0 0 0 0 0 0 0 43 1141 1406 1572 1607 1471 1024 1308 1512 1511 1465 1435
0 0 0 0 0 0 0 0 0 0 0 0 0 0 0 0 0 0 0 0 0 123 1160 1179 1311 1293 1034 902 967 1318 1343 1307
0 0 0 0 0 0 0 0 0 0 0 0 0 0 0 0 0 0 0 0 0 0 0 643 1169 1097 869 676 786 1026 1028 817
0 0 0 0 0 0 0 0 0 0 0 0 0 0 0 0 0 0 0 0 0 0 0 0 630 1002 879 775 685 1034 921 799
0 0 0 0 0 0 0 0 0 0 0 0 0 0 0 0 0 0 0 0 0 0 0 0 0 879 1009 975 888 945 1171 1178
0 0 0 0 0 0 0 0 0 0 0 0 0 0 1 1 1 2 1 0 0 0 0 0 0 92 1014 1077 832 874 974 1136
0 0 0 0 0 0 0 0 0 0 0 0 0 0 0 1 0 0 1 2 1 0 0 0 0 0 473 892 745 754 1125 1149
0 0 0 0 0 0 0 0 0 0 0 0 1 0 1 2 1 1 1 1 1 1 1 1 0 0 16 910 799 613 1106 1385
0 0 0 0 0 0 0 0 0 0 0 1 2 1 1 2 2 2 3 3 4 2 0 0 2 1 0 840 647 529 902 1163
0 0 0 0 0 0 0 0 0 1 1 2 2 2 2 2 2 3 3 3 4 4 4 2 2 2 0 801 892 511 812 914
0 0 0 0 0 0 0 0 1 0 0 0 1 1 2 2 3 2 2 3 3 3 5 4 1 1 1 636 1309 1053 829 880
0 0 0 0 1 0 0 0 1 0 0 0 0 1 2 3 3 2 2 2 3 3 4 3 2 2 1 397 1045 961 1019 820
0 0 0 0 0 0 0 1 1 0 1 1 1 1 1 2 2 3 3 3 4 6 8 9 2 0 96 556 589 537 516 802
1 1 2 2 1 1 1 0 1 1 1 1 0 0 0 0 1 2 2 2 2 2 4 7 4 4 5 0 149 378 515 570
2 2 2 2 1 1 1 1 1 0 0 1 0 0 0 0 0 1 2 2 2 4 1 2 5 9 10 0 0 295 15 1
2 3 3 1 1 1 2 1 0 1 1 0 0 0 0 0 0 0 0 0 0 2 1 1 1 2 7 15 2 13 12 8
1 0 0 0 0 1 1 1 1 1 0 0 0 0 0 0 0 0 0 0 0 0 2 2 2 4 3 2 3 7 7 5

GFSFLT1_con_mlcape_120.txt.gz
CAPE
0 0 0 0 0 0 0 0 0 0 0 0 0 0 0 0 0 0 0 32 0 6 670 1076 1022 1141 1320 1443 1457 1317 1252 903
0 0 0 0 0 0 0 0 0 0 0 0 0 0 0 0 0 0 0 0 0 0 580 962 729 733 871 1045 1301 1139 1000 790
0 0 0 0 0 0 0 0 0 0 0 0 0 0 0 0 0 0 0 0 0 0 0 13 751 793 736 617 595 579 766 683
0 0 0 0 0 0 0 0 0 0 0 0 0 0 0 0 0 0 0 0 0 0 0 0 0 333 398 319 468 424 275 385
0 0 0 0 0 0 0 0 0 0 0 0 0 0 0 0 0 0 0 0 0 0 0 0 0 0 165 557 481 285 343 67
0 0 0 0 0 0 0 0 0 0 0 0 0 0 0 0 0 0 0 0 0 0 0 0 0 0 0 111 594 484 256 91
0 0 0 0 0 0 0 0 0 0 0 0 0 0 0 0 0 0 0 0 0 0 0 0 0 0 0 0 303 473 251 72
0 0 0 0 0 0 0 0 0 0 0 0 0 0 0 0 0 1 3 2 0 0 0 0 0 0 0 0 0 526 453 271
0 0 0 0 0 0 0 0 0 0 0 0 0 0 1 2 1 1 1 1 1 0 0 1 1 2 2 0 0 45 614 499
0 0 0 0 0 0 0 0 0 0 0 2 1 1 0 1 0 1 1 1 1 2 2 2 1 0 0 1 0 0 334 606
0 0 0 0 0 0 0 0 1 1 0 0 0 0 0 0 0 0 2 2 2 4 2 3 2 2 0 1 2 0 35 529
0 0 0 0 0 0 0 1 1 0 0 0 0 0 1 2 2 2 2 2 3 3 3 3 3 3 3 2 3 3 0 468
0 0 0 0 1 0 1 0 0 0 0 0 0 1 2 1 2 1 2 3 3 2 3 3 3 4 3 3 3 2 0 337
0 0 0 1 1 1 0 0 0 0 1 1 0 1 1 1 1 1 2 2 2 2 2 3 4 5 3 3 2 3 2 238
1 1 0 0 2 1 0 1 0 0 0 0 1 1 1 1 1 0 2 1 2 2 2 3 4 5 5 6 2 1 5 467
2 2 3 1 2 1 1 2 1 1 1 0 1 1 1 1 1 0 0 1 1 1 2 2 2 4 6 3 1 1 19 383
2 2 3 2 2 2 1 0 0 1 1 1 1 1 0 0 0 0 0 0 1 0 0 1 2 2 4 5 0 1 2 1
4 2 2 1 1 2 1 1 2 2 2 2 2 1 0 0 0 0 0 0 0 0 0 0 1 2 1 1 13 8 8 6
1 1 0 0 0 0 0 0 0 0 0 1 1 0 0 0 0 0 0 0 0 0 0 0 0 1 2 0 3 3 5 4

GFSFLT1_con_mlcape_123.txt.gz
CAPE
0 0 0 0 0 0 0 0 0 0 0 0 0 0 0 0 0 0 0 0 0 7 0 0 0 91 398 660 926 1000 963 826
0 0 0 0 0 0 0 0 0 0 0 0 0 0 0 0 0 0 0 0 0 0 0 0 10 60 20 343 614 758 749 486
0 0 0 0 0 0 0 0 0 0 0 0 0 0 0 0 0 0 0 0 0 0 0 0 1 0 44 49 542 496 531 318
0 0 0 0 0 0 0 0 0 0 0 0 0 0 0 0 0 0 0 0 0 0 0 0 0 0 0 29 380 190 283 272
0 0 0 0 0 0 0 0 0 0 0 0 0 0 0 0 0 0 0 0 0 0 0 0 0 0 0 0 0 270 67 16
0 0 0 0 0 0 0 0 0 0 0 0 0 0 0 0 0 0 0 0 0 0 0 0 0 0 0 0 0 0 263 10
0 0 0 0 0 0 0 0 0 0 0 0 0 0 0 0 0 0 0 0 0 0 0 0 0 0 0 0 0 0 1 296
0 0 0 0 0 0 0 0 0 0 0 1 0 0 1 1 1 2 2 1 1 1 0 1 2 1 0 1 1 0 0 21
0 0 0 0 0 0 0 0 0 2 1 2 0 0 0 0 0 0 0 2 1 0 0 0 1 1 1 0 0 0 1 0
0 0 0 0 0 0 0 0 2 0 0 0 0 0 0 0 1 1 1 3 2 2 2 3 2 2 2 2 1 2 0 0
0 0 0 0 0 0 0 0 1 0 1 0 0 0 0 1 1 1 2 2 3 3 3 3 3 3 3 3 3 1 3 1
0 0 0 0 0 0 0 0 0 0 0 0 0 1 0 1 0 1 1 2 2 2 2 2 3 2 2 2 2 3 2 1
0 0 0 0 0 0 0 0 0 0 0 0 0 1 1 1 1 1 1 1 2 2 1 2 2 3 3 3 3 3 4 4
0 1 2 1 1 0 0 0 0 0 0 0 0 0 0 2 2 1 2 1 1 2 1 2 3 3 3 4 4 3 3 4
1 1 2 2 1 1 0 1 0 1 0 1 1 1 1 1 1 1 1 2 1 2 1 1 2 2 2 4 6 6 4 3
3 3 2 1 1 1 1 1 2 2 2 2 1 1 1 1 1 1 0 1 1 1 1 1 1 1 2 3 1 1 3 3
2 0 1 0 0 1 0 0 2 2 3 3 2 0 0 0 0 0 0 1 0 0 0 0 0 1 2 3 4 6 5 4
0 0 0 0 1 0 0 0 0 0 0 0 2 0 0 1 1 1 1 1 0 0 0 0 0 0 2 2 1 2 6 5
0 0 0 0 0 0 0 0 0 0 0 0 0 0 0 0 0 1 0 0 0 0 0 0 0 0 1 1 0 0 2 5

GFSFLT1_con_mlcape_126.txt.gz
CAPE
0 0 0 0 0 0 0 0 0 0 0 0 0 0 0 0 0 0 0 0 0 0 0 8 0 0 11 100 81 226 490 746
0 0 0 0 0 0 0 0 0 0 0 0 0 0 0 0 0 0 0 0 0 0 0 0 0 0 0 0 0 6 34 369
0 0 0 0 0 0 0 0 0 0 0 0 0 0 0 0 0 0 0 0 0 0 0 0 0 0 0 1 0 0 0 61
0 0 0 0 0 0 0 0 0 0 0 0 0 0 0 0 0 0 0 0 0 0 0 0 0 0 0 0 0 4 1 62
0 0 0 0 0 0 0 0 0 0 0 0 0 0 0 0 0 0 0 0 0 0 0 0 0 0 0 0 0 0 1 8
0 0 0 0 0 0 0 0 0 0 0 0 0 0 0 1 0 0 0 0 0 0 0 0 0 0 0 0 0 0 0 0
0 0 0 0 0 0 0 0 0 0 0 0 0 0 2 2 1 0 2 1 1 0 0 0 1 1 2 0 0 0 0 1
0 0 0 0 0 0 0 0 0 0 0 0 0 0 0 0 0 0 1 1 0 1 1 0 0 1 0 1 1 1 0 0
0 0 0 0 0 0 0 0 0 0 0 0 0 0 0 0 0 0 0 1 1 1 2 2 2 1 2 1 2 0 1 2
0 0 0 0 0 0 0 0 1 0 0 0 0 0 0 0 0 2 2 1 2 1 1 2 2 2 3 2 2 2 1 2
0 0 0 0 0 0 1 0 0 0 1 0 1 1 2 1 3 1 1 1 2 1 1 2 2 2 2 2 2 2 3 2
0 0 0 0 0 0 0 0 0 0 1 0 1 0 0 1 1 0 1 2 1 2 2 2 2 2 2 2 3 3 3 3
0 0 0 1 0 0 0 0 0 0 0 0 0 0 2 0 0 1 1 1 0 1 1 3 3 3 1 1 3 4 3 3
0 0 1 0 2 1 1 1 1 0 0 0 0 0 1 0 0 0 0 0 1 1 1 1 1 1 4 3 2 3 5 4
0 0 2 1 2 2 2 3 2 1 0 1 3 2 1 1 0 0 0 1 1 1 1 1 0 2 1 2 3 3 3 4
2 2 0 0 2 0 0 0 0 0 0 1 1 1 1 0 0 0 0 0 0 1 0 0 0 1 1 2 2 3 5 3
0 0 0 1 0 0 0 0 0 0 0 0 0 0 1 0 0 0 0 0 0 0 0 0 0 1 2 1 2 2 3 5
0 0 0 0 0 0 0 0 0 0 0 0 0 0 0 0 0 0 0 0 0 0 0 0 0 0 2 1 1 1 1 2
0 0 0 0 0 0 0 0 0 0 0 0 0 0 0 0 0 0 0 0 0 0 1 0 0 0 2 3 0 0 0 0

GFSFLT1_con_mlcape_129.txt.gz
CAPE
0 0 0 0 0 0 0 0 0 0 0 0 0 0 0 0 0 0 0 0 0 0 0 0 4 63 178 83 2 4 415 962
0 0 0 0 0 0 0 0 0 0 0 0 0 0 0 0 0 0 0 0 0 0 0 0 0 2 3 27 115 62 46 165
0 0 0 0 0 0 0 0 0 0 0 0 0 0 0 0 0 0 0 0 0 0 0 0 0 0 0 1 2 4 3 69
0 0 0 0 0 0 0 0 0 0 0 0 0 0 0 0 0 0 0 0 0 0 0 0 0 0 0 0 2 2 9 40
0 0 0 0 0 0 0 0 0 0 0 0 0 0 0 0 0 0 0 0 0 0 0 0 0 0 0 0 0 2 2 2
0 0 0 0 0 0 0 0 0 0 0 0 0 0 0 0 0 0 0 0 1 2 3 1 1 1 0 3 0 0 1 3
0 1 1 0 0 0 0 0 0 0 0 0 0 0 0 0 0 0 0 0 0 1 0 0 0 1 0 1 0 0 1 1
1 0 0 0 0 0 0 0 0 0 0 0 1 0 1 1 1 1 1 0 0 1 3 0 0 2 4 2 2 2 0 0
1 0 0 0 0 0 0 0 0 0 0 1 1 3 0 2 3 2 2 2 1 1 1 1 1 1 2 4 4 4 4 1
0 0 0 0 0 0 0 0 0 0 0 1 0 1 1 2 2 1 3 3 1 0 1 2 2 1 2 2 3 3 1 2
0 0 0 0 0 0 0 0 1 0 2 2 2 2 5 3 4 5 2 3 2 2 1 1 1 2 2 3 3 3 2 2
0 0 0 0 0 0 0 1 1 1 2 2 1 1 4 2 3 3 3 1 3 3 3 2 2 2 3 2 2 2 4 4
0 0 0 0 0 0 0 1 1 2 1 1 1 1 1 1 1 2 3 3 3 3 3 5 4 3 5 4 3 2 3 4
0 0 0 2 1 0 0 1 2 1 0 0 0 1 1 1 1 2 2 3 2 2 3 4 3 3 2 0 2 2 2 2
0 0 2 2 0 0 0 0 0 0 0 1 2 2 1 1 2 1 2 2 3 3 4 4 4 3 2 1 2 2 2 3
0 0 2 1 0 0 0 0 0 0 0 0 0 0 0 0 1 1 1 1 1 2 2 2 4 3 2 1 1 0 1 2
0 1 1 0 0 0 0 0 0 0 0 0 0 0 0 0 0 0 0 0 1 1 1 0 1 2 2 2 1 0 0 1
1 1 1 0 0 0 0 0 0 0 0 0 0 0 0 0 0 0 0 0 0 0 0 0 0 1 2 2 1 0 0 0
2 2 0 0 0 0 0 0 0 0 0 0 0 0 0 0 0 0 0 0 0 0 0 0 0 1 0 2 1 0 0 0